CW9600 Weather Reports


Display with metric or nautical units.
time (UTC)temp
F
wind
direction
speed
MPH
gust
MPH
rain 1hr
in
rain 24hr
in
rain mn
in
humidity
%
barometer
mb
20260901174202 65 253 6.0 12.0 0.00 0.00 0.00 72
20260901174102 65 253 6.0 12.0 0.00 0.00 0.00 72
20260901174002 65 252 6.0 12.0 0.00 0.00 0.00 72
20260901173902 65 251 6.0 12.0 0.00 0.00 0.00 72
20260901173802 65 251 6.0 12.0 0.00 0.00 0.00 72
20260901173703 65 251 7.0 10.0 0.00 0.00 0.00 72
20260901173623 65 251 7.0 10.0 0.00 0.00 0.00 72
20260901173502 65 251 7.0 10.0 0.00 0.00 0.00 72
20260901173403 65 249 7.0 11.0 0.00 0.00 0.00 72
20260901173302 65 250 8.0 12.0 0.00 0.00 0.00 71
20260901173203 66 248 8.0 12.0 0.00 0.00 0.00 72
20260901173102 66 248 8.0 12.0 0.00 0.00 0.00 71
20260901173002 66 249 8.0 12.0 0.00 0.00 0.00 71
20260901172923 66 249 8.0 12.0 0.00 0.00 0.00 71
20260901172802 66 249 8.0 12.0 0.00 0.00 0.00 71
20260901172723 66 249 8.0 12.0 0.00 0.00 0.00 71
20260901172602 66 248 9.0 13.0 0.00 0.00 0.00 71
20260901172502 66 248 9.0 14.0 0.00 0.00 0.00 71
20260901172424 66 249 9.0 14.0 0.00 0.00 0.00 71
20260901172305 66 249 8.0 14.0 0.00 0.00 0.00 71
20260901172202 66 250 8.0 14.0 0.00 0.00 0.00 71
20260901172102 66 251 8.0 14.0 0.00 0.00 0.00 70
20260901172002 66 249 8.0 14.0 0.00 0.00 0.00 70
20260901171902 66 248 8.0 14.0 0.00 0.00 0.00 70
20260901171823 66 248 8.0 14.0 0.00 0.00 0.00 70
20260901171702 66 249 8.0 14.0 0.00 0.00 0.00 70
20260901171602 66 251 8.0 14.0 0.00 0.00 0.00 70
20260901171523 66 253 8.0 13.0 0.00 0.00 0.00 70
20260901171423 66 252 8.0 13.0 0.00 0.00 0.00 70
20260901171302 66 252 8.0 13.0 0.00 0.00 0.00 70
20260901171202 66 252 9.0 13.0 0.00 0.00 0.00 70
20260901171102 66 252 9.0 18.0 0.00 0.00 0.00 70
20260901171003 66 253 9.0 18.0 0.00 0.00 0.00 70
20260901170903 66 254 9.0 18.0 0.00 0.00 0.00 70
20260901170802 66 255 10.0 18.0 0.00 0.00 0.00 69
20260901170702 66 255 10.0 18.0 0.00 0.00 0.00 69
20260901170604 66 255 10.0 18.0 0.00 0.00 0.00 70
20260901170502 66 255 10.0 18.0 0.00 0.00 0.00 69
20260901170423 66 256 10.0 18.0 0.00 0.00 0.00 69
20260901170302 66 257 10.0 18.0 0.00 0.00 0.00 69
20260901170202 66 257 10.0 18.0 0.00 0.00 0.00 69
20260901170002 66 258 10.0 16.0 0.00 0.00 0.00 68
20260901165902 66 257 10.0 16.0 0.00 0.00 0.00 69
20260901165823 66 258 10.0 16.0 0.00 0.00 0.00 69
20260901165702 66 260 9.0 16.0 0.00 0.00 0.00 69
20260901165602 66 259 9.0 16.0 0.00 0.00 0.00 69
20260901165502 66 258 9.0 15.0 0.00 0.00 0.00 69
20260901165402 66 257 9.0 18.0 0.00 0.00 0.00 69
20260901165306 66 257 9.0 18.0 0.00 0.00 0.00 69
20260901165202 66 257 9.0 18.0 0.00 0.00 0.00 68
20260901165102 66 258 9.0 18.0 0.00 0.00 0.00 69
20260901165002 67 257 9.0 18.0 0.00 0.00 0.00 69
20260901164902 67 257 9.0 18.0 0.00 0.00 0.00 69
20260901164803 67 257 9.0 18.0 0.00 0.00 0.00 69
20260901164702 67 256 9.0 18.0 0.00 0.00 0.00 68
20260901164603 67 257 9.0 18.0 0.00 0.00 0.00 68
20260901164502 67 258 8.0 18.0 0.00 0.00 0.00 68
20260901164402 67 258 8.0 16.0 0.00 0.00 0.00 68
20260901164302 67 257 8.0 16.0 0.00 0.00 0.00 68
20260901164202 67 258 8.0 16.0 0.00 0.00 0.00 68
20260901164102 67 259 8.0 16.0 0.00 0.00 0.00 68
20260901164002 67 264 9.0 14.0 0.00 0.00 0.00 68
20260901163902 67 264 8.0 19.0 0.00 0.00 0.00 69
20260901163802 67 265 8.0 19.0 0.00 0.00 0.00 68
20260901163702 67 266 8.0 19.0 0.00 0.00 0.00 68
20260901163602 67 264 9.0 19.0 0.00 0.00 0.00 68
20260901163502 67 265 9.0 19.0 0.00 0.00 0.00 68
20260901163427 67 265 9.0 19.0 0.00 0.00 0.00 68
20260901163323 67 263 9.0 19.0 0.00 0.00 0.00 68
20260901163202 67 262 10.0 21.0 0.00 0.00 0.00 68
20260901163102 67 261 10.0 21.0 0.00 0.00 0.00 67
20260901163023 67 260 10.0 21.0 0.00 0.00 0.00 67
20260901162902 67 260 10.0 21.0 0.00 0.00 0.00 68
20260901162802 67 260 11.0 21.0 0.00 0.00 0.00 67
20260901162702 67 260 11.0 21.0 0.00 0.00 0.00 67
20260901162602 67 260 11.0 21.0 0.00 0.00 0.00 67
20260901162503 67 259 11.0 21.0 0.00 0.00 0.00 66
20260901162402 67 261 11.0 21.0 0.00 0.00 0.00 66
20260901162305 67 264 11.0 21.0 0.00 0.00 0.00 66
20260901162202 67 267 12.0 19.0 0.00 0.00 0.00 66
20260901162102 67 267 12.0 19.0 0.00 0.00 0.00 66
20260901162002 68 266 11.0 19.0 0.00 0.00 0.00 66
20260901161902 68 267 11.0 19.0 0.00 0.00 0.00 66
20260901161802 68 268 11.0 19.0 0.00 0.00 0.00 65
20260901161702 68 271 11.0 19.0 0.00 0.00 0.00 65
20260901161602 68 273 11.0 19.0 0.00 0.00 0.00 65
20260901161503 68 272 11.0 19.0 0.00 0.00 0.00 64
20260901161402 68 270 10.0 19.0 0.00 0.00 0.00 64
20260901161302 68 270 10.0 19.0 0.00 0.00 0.00 64
20260901161223 68 268 10.0 18.0 0.00 0.00 0.00 64
20260901161102 68 267 10.0 18.0 0.00 0.00 0.00 64
20260901161002 68 267 10.0 18.0 0.00 0.00 0.00 64
20260901160923 68 266 10.0 18.0 0.00 0.00 0.00 64
20260901160802 68 264 10.0 18.0 0.00 0.00 0.00 64
20260901160702 68 263 9.0 18.0 0.00 0.00 0.00 64
20260901160602 68 261 9.0 18.0 0.00 0.00 0.00 64
20260901160502 68 261 9.0 16.0 0.00 0.00 0.00 66
20260901160402 68 259 9.0 16.0 0.00 0.00 0.00 65
20260901160323 68 258 9.0 16.0 0.00 0.00 0.00 65
20260901160202 68 257 10.0 16.0 0.00 0.00 0.00 65
20260901160025 68 255 10.0 16.0 0.00 0.00 0.00 65
20260901155902 68 254 9.0 16.0 0.00 0.00 0.00 66
20260901155803 68 254 9.0 16.0 0.00 0.00 0.00 66
20260901155702 68 254 10.0 16.0 0.00 0.00 0.00 66
20260901155602 68 254 10.0 16.0 0.00 0.00 0.00 65
20260901155502 68 253 10.0 16.0 0.00 0.00 0.00 65
20260901155402 68 254 10.0 15.0 0.00 0.00 0.00 65
20260901155306 68 256 9.0 15.0 0.00 0.00 0.00 65
20260901155202 68 256 9.0 15.0 0.00 0.00 0.00 65
20260901155102 68 258 9.0 15.0 0.00 0.00 0.00 66
20260901155023 68 258 9.0 15.0 0.00 0.00 0.00 66
20260901154902 68 260 9.0 15.0 0.00 0.00 0.00 65
20260901154802 68 262 9.0 15.0 0.00 0.00 0.00 64
20260901154702 68 261 10.0 18.0 0.00 0.00 0.00 65
20260901154604 68 264 10.0 18.0 0.00 0.00 0.00 64
20260901154502 68 267 10.0 18.0 0.00 0.00 0.00 64
20260901154402 68 268 10.0 18.0 0.00 0.00 0.00 65
20260901154302 68 271 11.0 19.0 0.00 0.00 0.00 65
20260901154223 68 272 11.0 19.0 0.00 0.00 0.00 65
20260901154102 68 275 11.0 19.0 0.00 0.00 0.00 65
20260901154002 68 277 11.0 19.0 0.00 0.00 0.00 65
20260901153923 68 278 11.0 19.0 0.00 0.00 0.00 65
20260901153802 68 277 11.0 19.0 0.00 0.00 0.00 64
20260901153723 68 278 11.0 19.0 0.00 0.00 0.00 64
20260901153602 68 278 11.0 19.0 0.00 0.00 0.00 64
20260901153502 68 279 11.0 19.0 0.00 0.00 0.00 64
20260901153402 68 280 11.0 19.0 0.00 0.00 0.00 64
20260901153302 68 280 10.0 19.0 0.00 0.00 0.00 64
20260901153202 68 279 10.0 19.0 0.00 0.00 0.00 64
20260901153102 68 279 10.0 19.0 0.00 0.00 0.00 64
20260901153002 68 278 10.0 19.0 0.00 0.00 0.00 63
20260901152902 68 280 10.0 19.0 0.00 0.00 0.00 63
20260901152802 68 281 11.0 19.0 0.00 0.00 0.00 63
20260901152703 68 282 11.0 19.0 0.00 0.00 0.00 62
20260901152602 68 281 11.0 20.0 0.00 0.00 0.00 62
20260901152502 69 281 11.0 20.0 0.00 0.00 0.00 62
20260901152402 69 281 11.0 20.0 0.00 0.00 0.00 62
20260901152305 69 280 10.0 20.0 0.00 0.00 0.00 63
20260901152202 69 279 10.0 20.0 0.00 0.00 0.00 62
20260901152102 69 278 10.0 20.0 0.00 0.00 0.00 62
20260901152002 69 278 10.0 20.0 0.00 0.00 0.00 62
20260901151902 69 276 10.0 20.0 0.00 0.00 0.00 61
20260901151802 69 274 10.0 20.0 0.00 0.00 0.00 61
20260901151702 69 273 9.0 20.0 0.00 0.00 0.00 61
20260901151603 69 274 9.0 14.0 0.00 0.00 0.00 62
20260901151502 69 272 9.0 14.0 0.00 0.00 0.00 62
20260901151402 69 272 9.0 14.0 0.00 0.00 0.00 62
20260901151302 69 274 9.0 14.0 0.00 0.00 0.00 62
20260901151203 69 276 9.0 14.0 0.00 0.00 0.00 62
20260901151102 69 279 9.0 14.0 0.00 0.00 0.00 61
20260901151002 69 280 9.0 14.0 0.00 0.00 0.00 61
20260901150923 69 280 9.0 14.0 0.00 0.00 0.00 61
20260901150802 69 278 9.0 14.0 0.00 0.00 0.00 62
20260901150723 69 276 9.0 14.0 0.00 0.00 0.00 62
20260901150602 69 273 8.0 14.0 0.00 0.00 0.00 62
20260901150503 69 271 8.0 14.0 0.00 0.00 0.00 61
20260901150403 69 269 8.0 14.0 0.00 0.00 0.00 61
20260901150302 69 265 8.0 14.0 0.00 0.00 0.00 61
20260901150202 69 261 7.0 13.0 0.00 0.00 0.00 62
20260901150002 69 251 8.0 12.0 0.00 0.00 0.00 63
20260901145902 69 252 8.0 12.0 0.00 0.00 0.00 63
20260901145823 69 252 8.0 12.0 0.00 0.00 0.00 63
20260901145702 69 254 7.0 12.0 0.00 0.00 0.00 62
20260901145623 69 255 7.0 12.0 0.00 0.00 0.00 62
20260901145503 69 257 7.0 12.0 0.00 0.00 0.00 64
20260901145403 69 257 7.0 12.0 0.00 0.00 0.00 63
20260901145306 69 258 7.0 12.0 0.00 0.00 0.00 63
20260901145202 69 258 7.0 12.0 0.00 0.00 0.00 63
20260901145102 69 261 7.0 12.0 0.00 0.00 0.00 65
20260901145002 69 264 7.0 12.0 0.00 0.00 0.00 64
20260901144902 69 265 7.0 12.0 0.00 0.00 0.00 64
20260901144823 68 265 7.0 12.0 0.00 0.00 0.00 64
20260901144702 68 267 7.0 12.0 0.00 0.00 0.00 63
20260901144602 68 267 7.0 12.0 0.00 0.00 0.00 64
20260901144523 68 267 7.0 12.0 0.00 0.00 0.00 64
20260901144402 68 269 8.0 12.0 0.00 0.00 0.00 63
20260901144302 68 272 7.0 12.0 0.00 0.00 0.00 64
20260901144223 68 272 7.0 12.0 0.00 0.00 0.00 64
20260901144102 68 273 7.0 12.0 0.00 0.00 0.00 64
20260901144023 68 274 7.0 12.0 0.00 0.00 0.00 64
20260901143902 68 272 8.0 12.0 0.00 0.00 0.00 64
20260901143802 68 274 8.0 12.0 0.00 0.00 0.00 64
20260901143702 68 272 8.0 13.0 0.00 0.00 0.00 64
20260901143602 68 273 8.0 13.0 0.00 0.00 0.00 63
20260901143502 68 273 8.0 13.0 0.00 0.00 0.00 63
20260901143402 68 273 8.0 13.0 0.00 0.00 0.00 63
20260901143302 68 273 8.0 13.0 0.00 0.00 0.00 63
20260901143202 68 273 8.0 13.0 0.00 0.00 0.00 63
20260901143102 68 271 8.0 13.0 0.00 0.00 0.00 63
20260901143002 68 272 8.0 13.0 0.00 0.00 0.00 64
20260901142902 68 270 9.0 13.0 0.00 0.00 0.00 63
20260901142823 68 267 9.0 13.0 0.00 0.00 0.00 63
20260901142703 68 264 9.0 14.0 0.00 0.00 0.00 63
20260901142602 68 261 9.0 15.0 0.00 0.00 0.00 63
20260901142502 68 259 9.0 15.0 0.00 0.00 0.00 62
20260901142402 68 256 9.0 15.0 0.00 0.00 0.00 62
20260901142305 68 255 10.0 15.0 0.00 0.00 0.00 62
20260901142202 68 254 10.0 15.0 0.00 0.00 0.00 61
20260901142102 68 254 10.0 15.0 0.00 0.00 0.00 62
20260901142023 68 254 10.0 15.0 0.00 0.00 0.00 62
20260901141902 68 256 10.0 15.0 0.00 0.02 0.00 61
20260901141802 68 258 10.0 15.0 0.00 0.02 0.00 61
20260901141702 68 260 10.0 15.0 0.00 0.02 0.00 62
20260901141602 68 263 10.0 15.0 0.00 0.02 0.00 62
20260901141503 68 264 10.0 15.0 0.00 0.02 0.00 62
20260901141402 68 264 10.0 15.0 0.00 0.02 0.00 62
20260901141302 68 266 10.0 15.0 0.00 0.02 0.00 61
20260901141203 68 269 10.0 15.0 0.00 0.02 0.00 62
20260901141124 68 270 10.0 15.0 0.00 0.02 0.00 62
20260901141002 68 270 10.0 15.0 0.00 0.02 0.00 62
20260901140902 68 271 9.0 14.0 0.00 0.02 0.00 62
20260901140802 68 272 10.0 14.0 0.00 0.02 0.00 62
20260901140702 68 272 10.0 14.0 0.00 0.02 0.00 62
20260901140602 68 272 10.0 14.0 0.00 0.02 0.00 62
20260901140523 68 274 10.0 14.0 0.00 0.02 0.00 62
20260901140402 68 277 10.0 18.0 0.00 0.02 0.00 61
20260901140303 68 277 10.0 18.0 0.00 0.02 0.00 62
20260901140202 68 275 10.0 18.0 0.00 0.02 0.00 62
20260901140002 68 277 10.0 18.0 0.00 0.02 0.00 61
20260901135903 68 277 9.0 18.0 0.00 0.02 0.00 62
20260901135802 68 277 9.0 18.0 0.00 0.02 0.00 62
20260901135725 69 278 9.0 18.0 0.00 0.02 0.00 62
20260901135602 69 275 8.0 18.0 0.00 0.02 0.00 63
20260901135502 69 274 8.0 18.0 0.00 0.02 0.00 61
20260901135423 69 271 8.0 18.0 0.00 0.02 0.00 61
20260901135305 69 269 8.0 12.0 0.00 0.02 0.00 62
20260901135223 69 269 8.0 12.0 0.00 0.02 0.00 62
20260901135102 69 269 8.0 12.0 0.00 0.02 0.00 63
20260901135023 69 266 8.0 12.0 0.00 0.02 0.00 63
20260901134902 69 265 8.0 13.0 0.00 0.02 0.00 62
20260901134802 69 264 9.0 15.0 0.00 0.02 0.00 62
20260901134702 69 261 9.0 15.0 0.00 0.02 0.00 62
20260901134602 69 263 9.0 15.0 0.00 0.02 0.00 61
20260901134503 68 261 9.0 15.0 0.00 0.02 0.00 61
20260901134402 69 260 9.0 15.0 0.00 0.02 0.00 61
20260901134302 69 257 9.0 15.0 0.00 0.02 0.00 62
20260901134202 69 255 10.0 16.0 0.00 0.02 0.00 62
20260901134102 69 250 10.0 16.0 0.00 0.02 0.00 62
20260901134002 69 251 11.0 18.0 0.00 0.02 0.00 62
20260901133902 69 250 11.0 18.0 0.00 0.02 0.00 61
20260901133823 69 249 11.0 18.0 0.00 0.02 0.00 61
20260901133702 69 249 11.0 18.0 0.00 0.02 0.00 61
20260901133602 69 249 11.0 18.0 0.00 0.02 0.00 61
20260901133502 69 249 11.0 18.0 0.00 0.02 0.00 61
20260901133402 69 250 11.0 18.0 0.00 0.02 0.00 61
20260901133302 69 251 11.0 18.0 0.00 0.02 0.00 61
20260901133202 69 253 11.0 18.0 0.00 0.02 0.00 60
20260901133123 69 254 11.0 18.0 0.00 0.02 0.00 60
20260901133003 70 255 10.0 16.0 0.00 0.02 0.00 60
20260901132902 70 256 10.0 16.0 0.00 0.02 0.00 62
20260901132823 70 257 10.0 16.0 0.00 0.02 0.00 62
20260901132702 70 257 10.0 16.0 0.00 0.02 0.00 60
20260901132604 69 255 10.0 16.0 0.00 0.02 0.00 60
20260901132502 69 253 10.0 19.0 0.00 0.02 0.00 61
20260901132402 69 252 11.0 19.0 0.00 0.02 0.00 61
20260901132323 69 250 11.0 19.0 0.00 0.02 0.00 61
20260901132223 69 249 11.0 19.0 0.00 0.02 0.00 61
20260901132102 69 248 12.0 19.0 0.00 0.02 0.00 62
20260901132023 69 247 12.0 19.0 0.00 0.02 0.00 62
20260901131902 69 246 13.0 19.0 0.00 0.02 0.00 61
20260901131802 69 246 14.0 19.0 0.00 0.02 0.00 60
20260901131703 69 246 14.0 19.0 0.00 0.02 0.00 59
20260901131602 69 248 14.0 19.0 0.00 0.02 0.00 59
20260901131502 69 249 14.0 19.0 0.00 0.02 0.00 61
20260901131402 69 252 13.0 20.0 0.00 0.02 0.00 60
20260901131302 69 254 13.0 20.0 0.00 0.02 0.00 60
20260901131203 69 255 13.0 20.0 0.00 0.02 0.00 60
20260901131102 69 255 13.0 20.0 0.00 0.02 0.00 60
20260901131002 69 255 13.0 20.0 0.00 0.02 0.00 59
20260901130903 69 257 12.0 20.0 0.00 0.02 0.00 59
20260901130823 69 258 12.0 20.0 0.00 0.02 0.00 59
20260901130702 69 259 13.0 20.0 0.00 0.02 0.00 58
20260901130602 69 257 13.0 20.0 0.00 0.02 0.00 59
20260901130523 69 258 13.0 20.0 0.00 0.02 0.00 59
20260901130403 70 254 13.0 20.0 0.00 0.02 0.00 58
20260901130302 70 254 13.0 20.0 0.00 0.02 0.00 60
20260901130223 70 254 13.0 20.0 0.00 0.02 0.00 60
20260901130002 69 258 12.0 20.0 0.00 0.02 0.00 60
20260901125902 69 258 12.0 20.0 0.00 0.02 0.00 59
20260901125802 69 258 11.0 20.0 0.00 0.02 0.00 60
20260901125703 69 258 11.0 20.0 0.00 0.02 0.00 60
20260901125623 69 260 11.0 20.0 0.00 0.02 0.00 60
20260901125502 69 260 11.0 19.0 0.00 0.02 0.00 60
20260901125402 69 261 11.0 19.0 0.00 0.02 0.00 60
20260901125308 69 261 11.0 19.0 0.00 0.02 0.00 61
20260901125202 69 261 11.0 19.0 0.00 0.02 0.00 61
20260901125102 69 260 12.0 19.0 0.00 0.02 0.00 60
20260901125002 69 257 12.0 19.0 0.00 0.02 0.00 59
20260901124923 69 256 12.0 19.0 0.00 0.02 0.00 59
20260901124802 69 253 12.0 19.0 0.00 0.02 0.00 59
20260901124702 69 253 12.0 19.0 0.00 0.02 0.00 59
20260901124603 70 251 12.0 19.0 0.00 0.02 0.00 58
20260901124502 70 249 12.0 19.0 0.00 0.02 0.00 59
20260901124424 70 249 12.0 19.0 0.00 0.02 0.00 59
20260901124302 70 248 12.0 19.0 0.00 0.02 0.00 59
20260901124202 70 248 12.0 20.0 0.00 0.02 0.00 59
20260901124102 70 248 12.0 21.0 0.00 0.02 0.00 60
20260901124002 70 249 12.0 21.0 0.00 0.02 0.00 61
20260901123903 69 250 12.0 21.0 0.00 0.02 0.00 61
20260901123802 69 251 11.0 21.0 0.00 0.02 0.00 61
20260901123723 69 252 11.0 21.0 0.00 0.02 0.00 61
20260901123602 68 255 11.0 21.0 0.00 0.02 0.00 60
20260901123503 68 257 11.0 21.0 0.00 0.02 0.00 59
20260901123402 68 258 11.0 21.0 0.00 0.02 0.00 59
20260901123302 69 258 11.0 21.0 0.00 0.02 0.00 59
20260901123223 69 257 11.0 21.0 0.00 0.02 0.00 59
20260901123102 68 258 10.0 18.0 0.00 0.02 0.00 61
20260901123002 68 257 10.0 18.0 0.00 0.02 0.00 60
20260901122903 68 259 10.0 18.0 0.00 0.02 0.00 61
20260901122802 68 261 11.0 18.0 0.00 0.02 0.00 61
20260901122723 68 261 11.0 18.0 0.00 0.02 0.00 61
20260901122602 68 263 11.0 18.0 0.00 0.02 0.00 62
20260901122523 68 263 11.0 18.0 0.00 0.02 0.00 62
20260901122402 68 266 11.0 18.0 0.00 0.02 0.00 60
20260901122306 68 267 11.0 18.0 0.00 0.02 0.00 60
20260901122203 68 267 11.0 18.0 0.00 0.02 0.00 60
20260901122123 68 267 11.0 18.0 0.00 0.02 0.00 60
20260901122024 68 266 11.0 18.0 0.00 0.02 0.00 60
20260901121902 68 261 12.0 18.0 0.00 0.02 0.00 61
20260901121802 68 256 12.0 21.0 0.00 0.02 0.00 61
20260901121702 68 252 13.0 21.0 0.00 0.02 0.00 60
20260901121603 68 247 13.0 22.0 0.00 0.02 0.00 61
20260901121523 68 244 13.0 22.0 0.00 0.02 0.00 61
20260901121424 68 240 14.0 22.0 0.00 0.02 0.00 60
20260901121302 68 237 15.0 22.0 0.00 0.02 0.00 59
20260901121202 69 236 15.0 22.0 0.00 0.02 0.00 59
20260901121102 69 237 14.0 22.0 0.00 0.02 0.00 58
20260901121002 69 239 14.0 22.0 0.00 0.02 0.00 57
20260901120902 70 242 13.0 22.0 0.00 0.02 0.00 58
20260901120802 70 246 13.0 22.0 0.00 0.02 0.00 59
20260901120702 70 248 12.0 22.0 0.00 0.02 0.00 60
20260901120602 69 253 12.0 22.0 0.00 0.02 0.00 57
20260901120502 69 258 12.0 22.0 0.00 0.02 0.00 60
20260901120402 69 261 12.0 19.0 0.00 0.02 0.00 60
20260901120303 69 262 12.0 19.0 0.00 0.02 0.00 61
20260901120202 68 263 12.0 19.0 0.00 0.02 0.00 60
20260901120002 68 262 12.0 19.0 0.00 0.02 0.00 60
20260901115902 68 262 12.0 19.0 0.00 0.02 0.00 59
20260901115802 68 263 12.0 19.0 0.00 0.02 0.00 58
20260901115702 68 264 12.0 19.0 0.00 0.02 0.00 57
20260901115602 68 261 12.0 19.0 0.00 0.02 0.00 58
20260901115523 69 260 12.0 19.0 0.00 0.02 0.00 58
20260901115402 69 260 11.0 18.0 0.00 0.02 0.00 60
20260901115306 69 262 10.0 18.0 0.00 0.02 0.00 60
20260901115202 69 263 10.0 18.0 0.00 0.02 0.00 59
20260901115102 69 264 10.0 18.0 0.00 0.02 0.00 58
20260901115002 69 262 10.0 18.0 0.00 0.02 0.00 58
20260901114902 69 258 10.0 18.0 0.00 0.02 0.00 59
20260901114803 69 252 10.0 18.0 0.00 0.02 0.00 61
20260901114702 69 247 9.0 18.0 0.00 0.02 0.00 60
20260901114602 69 250 9.0 18.0 0.00 0.02 0.00 60
20260901114502 69 250 10.0 16.0 0.00 0.02 0.00 60
20260901114402 69 248 10.0 19.0 0.00 0.02 0.00 60
20260901114324 69 247 10.0 19.0 0.00 0.02 0.00 60
20260901114203 69 245 12.0 19.0 0.00 0.02 0.00 61
20260901114124 69 244 12.0 19.0 0.00 0.02 0.00 61
20260901114003 69 240 12.0 20.0 0.00 0.02 0.00 58
20260901113902 69 240 12.0 20.0 0.00 0.02 0.00 60
20260901113803 69 243 12.0 20.0 0.00 0.02 0.00 61
20260901113702 69 244 12.0 20.0 0.00 0.02 0.00 61
20260901113602 69 244 12.0 20.0 0.00 0.02 0.00 59
20260901113502 69 246 11.0 20.0 0.00 0.02 0.00 60
20260901113402 69 249 11.0 20.0 0.00 0.02 0.00 61
20260901113302 69 252 11.0 20.0 0.00 0.02 0.00 60
20260901113203 69 252 11.0 20.0 0.00 0.02 0.00 60
20260901113124 69 252 11.0 20.0 0.00 0.02 0.00 60
20260901113002 68 257 10.0 18.0 0.00 0.02 0.00 61
20260901112903 68 260 10.0 18.0 0.00 0.02 0.00 60
20260901112803 68 262 10.0 18.0 0.00 0.02 0.00 62
20260901112703 68 263 10.0 18.0 0.00 0.02 0.00 62
20260901112603 68 263 10.0 18.0 0.00 0.02 0.00 62
20260901112502 68 261 10.0 18.0 0.00 0.02 0.00 61
20260901112403 68 257 10.0 18.0 0.00 0.02 0.00 61
20260901112306 68 254 10.0 18.0 0.00 0.02 0.00 62
20260901112203 68 250 10.0 16.0 0.00 0.02 0.00 63
20260901112103 68 249 10.0 16.0 0.00 0.02 0.00 62
20260901112003 68 248 11.0 16.0 0.00 0.02 0.00 62
20260901111923 68 247 11.0 16.0 0.00 0.02 0.00 62
20260901111803 68 248 11.0 16.0 0.00 0.02 0.00 62
20260901111723 68 251 11.0 16.0 0.00 0.02 0.00 62
20260901111602 68 253 11.0 16.0 0.00 0.02 0.00 63
20260901111503 68 252 11.0 16.0 0.00 0.02 0.00 62
20260901111402 68 254 11.0 16.0 0.00 0.02 0.00 62
20260901111303 67 256 10.0 16.0 0.00 0.02 0.00 62
20260901111202 67 262 10.0 16.0 0.00 0.02 0.00 63
20260901111103 67 265 10.0 14.0 0.00 0.02 0.00 62
20260901111023 67 267 10.0 14.0 0.00 0.02 0.00 62
20260901110903 67 269 10.0 14.0 0.00 0.02 0.00 63
20260901110803 67 267 11.0 15.0 0.00 0.02 0.00 63
20260901110703 67 261 11.0 18.0 0.00 0.02 0.00 62
20260901110623 67 259 11.0 18.0 0.00 0.02 0.00 62
20260901110503 67 259 11.0 18.0 0.00 0.02 0.00 62
20260901110402 67 257 11.0 18.0 0.00 0.02 0.00 63
20260901110303 67 257 11.0 18.0 0.00 0.02 0.00 64
20260901110202 67 256 12.0 18.0 0.00 0.02 0.00 63
20260901110124 67 256 12.0 18.0 0.00 0.02 0.00 63
20260901110002 67 254 12.0 18.0 0.00 0.02 0.00 62
20260901105903 67 251 12.0 18.0 0.00 0.02 0.00 63
20260901105802 67 251 12.0 18.0 0.00 0.02 0.00 62
20260901105702 66 252 12.0 19.0 0.00 0.02 0.00 62
20260901105602 67 251 12.0 19.0 0.00 0.02 0.00 62
20260901105503 66 250 13.0 19.0 0.00 0.02 0.00 63
20260901105403 66 250 13.0 20.0 0.00 0.02 0.00 62
20260901105305 66 249 13.0 20.0 0.00 0.02 0.00 63
20260901105202 67 247 14.0 20.0 0.00 0.02 0.00 63
20260901105102 66 247 14.0 20.0 0.00 0.02 0.00 63
20260901105003 66 246 13.0 20.0 0.00 0.02 0.00 63
20260901104902 66 247 13.0 20.0 0.00 0.02 0.00 63
20260901104802 66 248 13.0 20.0 0.00 0.02 0.00 63
20260901104702 66 247 13.0 20.0 0.00 0.02 0.00 63
20260901104602 66 247 13.0 20.0 0.00 0.02 0.00 62
20260901104502 66 247 12.0 20.0 0.00 0.02 0.00 64
20260901104402 66 248 12.0 20.0 0.00 0.02 0.00 64
20260901104302 66 249 12.0 20.0 0.00 0.02 0.00 63
20260901104223 66 250 12.0 20.0 0.00 0.02 0.00 63
20260901104102 66 251 12.0 20.0 0.00 0.02 0.00 63
20260901104003 66 252 12.0 20.0 0.00 0.02 0.00 63
20260901103903 66 251 13.0 20.0 0.00 0.02 0.00 63
20260901103802 66 249 13.0 20.0 0.00 0.02 0.00 63
20260901103702 66 250 13.0 20.0 0.00 0.02 0.00 65
20260901103602 66 249 13.0 20.0 0.00 0.02 0.00 64
20260901103503 66 249 13.0 20.0 0.00 0.02 0.00 64
20260901103423 66 250 13.0 20.0 0.00 0.02 0.00 64
20260901103302 66 249 14.0 20.0 0.00 0.02 0.00 64
20260901103203 66 248 14.0 21.0 0.00 0.02 0.00 63
20260901103102 66 247 14.0 21.0 0.00 0.02 0.00 63
20260901103003 66 245 14.0 22.0 0.00 0.02 0.00 65
20260901102902 66 244 14.0 22.0 0.00 0.02 0.00 64
20260901102803 66 244 14.0 22.0 0.00 0.02 0.00 63
20260901102702 66 243 14.0 22.0 0.00 0.02 0.00 65
20260901102602 66 243 15.0 22.0 0.00 0.02 0.00 65
20260901102525 66 243 15.0 22.0 0.00 0.02 0.00 65
20260901102402 66 242 15.0 22.0 0.00 0.02 0.00 63
20260901102306 66 242 14.0 22.0 0.00 0.02 0.00 63
20260901102203 66 242 14.0 22.0 0.00 0.02 0.00 63
20260901102103 66 243 13.0 22.0 0.00 0.02 0.00 65
20260901102003 66 246 14.0 22.0 0.00 0.02 0.00 64
20260901101902 66 245 13.0 22.0 0.00 0.02 0.00 64
20260901101802 66 244 13.0 22.0 0.00 0.02 0.00 63
20260901101724 66 243 13.0 22.0 0.00 0.02 0.00 63
20260901101603 66 241 13.0 22.0 0.00 0.02 0.00 65
20260901101503 66 241 14.0 21.0 0.00 0.02 0.00 65
20260901101403 66 243 14.0 21.0 0.00 0.02 0.00 65
20260901101302 66 243 13.0 21.0 0.00 0.02 0.00 64
20260901101223 66 243 13.0 21.0 0.00 0.02 0.00 64
20260901101103 66 243 13.0 21.0 0.00 0.02 0.00 65
20260901101023 66 242 13.0 21.0 0.00 0.02 0.00 65
20260901100902 66 244 12.0 21.0 0.00 0.02 0.00 64
20260901100804 65 246 12.0 21.0 0.00 0.02 0.00 64
20260901100703 65 248 11.0 20.0 0.00 0.02 0.00 65
20260901100603 65 251 11.0 19.0 0.00 0.02 0.00 64
20260901100523 65 252 11.0 19.0 0.00 0.02 0.00 64
20260901100423 65 252 10.0 18.0 0.00 0.02 0.00 64
20260901100303 66 252 10.0 18.0 0.00 0.02 0.00 64
20260901100202 66 254 10.0 18.0 0.00 0.02 0.00 65
20260901100004 66 257 9.0 16.0 0.00 0.02 0.00 65
20260901095902 66 257 9.0 16.0 0.00 0.02 0.00 65
20260901095803 66 256 10.0 16.0 0.00 0.02 0.00 66
20260901095702 65 255 9.0 16.0 0.00 0.02 0.00 66
20260901095602 65 256 9.0 16.0 0.00 0.02 0.00 67
20260901095524 65 256 9.0 16.0 0.00 0.02 0.00 67
20260901095402 65 254 9.0 16.0 0.00 0.02 0.00 65
20260901095306 65 253 9.0 16.0 0.00 0.02 0.00 66
20260901095202 65 250 10.0 13.0 0.00 0.02 0.00 66
20260901095103 65 247 10.0 14.0 0.00 0.02 0.00 69
20260901095023 65 244 10.0 14.0 0.00 0.02 0.00 69
20260901094923 65 242 10.0 15.0 0.00 0.02 0.00 69
20260901094802 65 242 10.0 16.0 0.00 0.02 0.00 71
20260901094702 64 242 11.0 16.0 0.00 0.02 0.00 71
20260901094602 64 242 11.0 16.0 0.00 0.02 0.00 70
20260901094523 64 242 11.0 16.0 0.00 0.02 0.00 70
20260901094403 64 243 11.0 16.0 0.00 0.02 0.00 69
20260901094302 64 244 11.0 16.0 0.00 0.02 0.00 70
20260901094202 64 245 11.0 16.0 0.00 0.02 0.00 70
20260901094123 64 245 11.0 16.0 0.00 0.02 0.00 70
20260901094002 64 247 11.0 16.0 0.00 0.02 0.00 70
20260901093923 64 246 11.0 20.0 0.00 0.02 0.00 70
20260901093803 64 244 12.0 20.0 0.00 0.02 0.00 69
20260901093723 64 244 12.0 20.0 0.00 0.02 0.00 69
20260901093603 64 244 12.0 20.0 0.00 0.02 0.00 69
20260901093503 64 242 12.0 20.0 0.00 0.02 0.00 70
20260901093402 64 241 13.0 20.0 0.00 0.02 0.00 69
20260901093302 64 240 13.0 20.0 0.00 0.02 0.00 70
20260901093202 64 238 13.0 20.0 0.00 0.02 0.00 71
20260901093102 64 237 13.0 20.0 0.00 0.02 0.00 70
20260901093002 64 237 13.0 20.0 0.00 0.02 0.00 72
20260901092902 64 238 13.0 18.0 0.00 0.02 0.00 71
20260901092824 64 237 13.0 18.0 0.00 0.02 0.00 71
20260901092703 64 235 13.0 18.0 0.00 0.02 0.00 72
20260901092624 64 234 13.0 18.0 0.00 0.02 0.00 72
20260901092524 64 234 13.0 18.0 0.00 0.02 0.00 71
20260901092423 64 234 13.0 18.0 0.00 0.02 0.00 71
20260901092305 64 235 13.0 18.0 0.00 0.02 0.00 71
20260901092224 64 236 13.0 18.0 0.00 0.02 0.00 71
20260901092102 64 235 14.0 20.0 0.00 0.02 0.00 71
20260901092003 64 234 14.0 20.0 0.00 0.02 0.00 72
20260901091903 64 235 14.0 20.0 0.00 0.02 0.00 72
20260901091803 64 235 13.0 20.0 0.00 0.02 0.00 71
20260901091703 64 237 13.0 20.0 0.00 0.02 0.00 71
20260901091603 64 237 14.0 20.0 0.00 0.02 0.00 72
20260901091503 64 237 14.0 20.0 0.00 0.02 0.00 73
20260901091403 64 237 14.0 20.0 0.00 0.02 0.00 72
20260901091302 64 236 14.0 20.0 0.00 0.02 0.00 72
20260901091203 64 237 13.0 20.0 0.00 0.02 0.00 72
20260901091102 64 239 13.0 20.0 0.00 0.02 0.00 72
20260901091003 64 240 13.0 20.0 0.00 0.02 0.00 73
20260901090902 63 240 13.0 20.0 0.00 0.02 0.00 73
20260901090803 63 241 13.0 20.0 0.00 0.02 0.00 72
20260901090724 63 243 13.0 20.0 0.00 0.02 0.00 72
20260901090602 63 244 13.0 20.0 0.00 0.02 0.00 74
20260901090502 63 245 12.0 19.0 0.00 0.02 0.00 75
20260901090402 63 245 13.0 19.0 0.00 0.02 0.00 74
20260901090325 63 246 13.0 19.0 0.00 0.02 0.00 74
20260901090203 63 245 12.0 19.0 0.00 0.02 0.00 73
20260901090003 63 244 12.0 19.0 0.00 0.02 0.00 73
20260901085903 63 244 12.0 19.0 0.00 0.02 0.00 74
20260901085804 63 243 12.0 19.0 0.00 0.02 0.00 74
20260901085703 63 240 12.0 19.0 0.00 0.02 0.00 74
20260901085602 63 239 12.0 19.0 0.00 0.02 0.00 75
20260901085503 63 237 13.0 19.0 0.00 0.02 0.00 74
20260901085403 63 237 12.0 19.0 0.00 0.02 0.00 76
20260901085305 63 236 13.0 18.0 0.00 0.02 0.00 76
20260901085202 62 237 13.0 18.0 0.00 0.02 0.00 77
20260901085103 62 236 13.0 18.0 0.00 0.02 0.00 77
20260901085003 62 236 13.0 18.0 0.00 0.02 0.00 76
20260901084924 62 236 13.0 18.0 0.00 0.02 0.00 76
20260901084803 62 237 13.0 18.0 0.00 0.02 0.00 76
20260901084702 62 237 12.0 18.0 0.00 0.02 0.00 76
20260901084603 62 238 11.0 16.0 0.00 0.02 0.00 77
20260901084502 62 240 11.0 16.0 0.00 0.02 0.00 77
20260901084404 62 240 11.0 16.0 0.00 0.02 0.00 77
20260901084303 62 239 11.0 16.0 0.00 0.02 0.00 78
20260901084202 62 239 10.0 16.0 0.00 0.02 0.00 77
20260901084102 62 240 11.0 16.0 0.00 0.02 0.00 77
20260901084003 62 239 11.0 18.0 0.00 0.02 0.00 77
20260901083902 62 238 11.0 18.0 0.00 0.02 0.00 78
20260901083802 62 237 10.0 18.0 0.00 0.02 0.00 78
20260901083702 62 238 11.0 18.0 0.00 0.02 0.00 79
20260901083603 62 237 11.0 18.0 0.00 0.02 0.00 79
20260901083503 62 236 11.0 18.0 0.00 0.02 0.00 79
20260901083424 62 235 11.0 18.0 0.00 0.02 0.00 79
20260901083304 61 236 11.0 18.0 0.00 0.02 0.00 80
20260901083223 61 237 11.0 18.0 0.00 0.02 0.00 80
20260901083102 61 237 11.0 18.0 0.00 0.02 0.00 80
20260901083003 61 238 11.0 16.0 0.00 0.02 0.00 79
20260901082902 61 239 11.0 16.0 0.00 0.02 0.00 80
20260901082803 61 239 11.0 16.0 0.00 0.02 0.00 79
20260901082704 61 239 12.0 16.0 0.00 0.02 0.00 79
20260901082623 61 238 12.0 16.0 0.00 0.02 0.00 79
20260901082502 61 238 12.0 18.0 0.00 0.02 0.00 80
20260901082404 61 238 12.0 18.0 0.00 0.02 0.00 80
20260901082306 60 237 12.0 18.0 0.00 0.02 0.00 79
20260901082203 60 236 12.0 18.0 0.00 0.02 0.00 80
20260901082124 60 236 12.0 18.0 0.00 0.02 0.00 80
20260901082002 60 234 12.0 18.0 0.00 0.02 0.00 80
20260901081903 60 233 12.0 18.0 0.00 0.02 0.00 81
20260901081803 60 232 12.0 18.0 0.00 0.02 0.00 80
20260901081703 60 232 12.0 18.0 0.00 0.02 0.00 81
20260901081624 60 232 12.0 18.0 0.00 0.02 0.00 81
20260901081503 60 232 12.0 16.0 0.00 0.02 0.00 81
20260901081402 60 233 13.0 16.0 0.00 0.02 0.00 81
20260901081302 60 234 13.0 16.0 0.00 0.02 0.00 81
20260901081203 60 234 13.0 16.0 0.00 0.02 0.00 81
20260901081103 60 234 13.0 16.0 0.00 0.02 0.00 81
20260901081003 60 234 13.0 18.0 0.00 0.02 0.00 81
20260901080903 60 235 13.0 18.0 0.00 0.02 0.00 81
20260901080824 60 235 13.0 18.0 0.00 0.02 0.00 81
20260901080703 60 237 13.0 18.0 0.00 0.02 0.00 81
20260901080602 60 237 13.0 18.0 0.00 0.02 0.00 81
20260901080503 60 236 13.0 18.0 0.00 0.02 0.00 81
20260901080423 60 236 13.0 18.0 0.00 0.02 0.00 81
20260901080302 60 236 13.0 18.0 0.00 0.02 0.00 81
20260901080223 60 235 13.0 18.0 0.00 0.02 0.00 81
20260901080003 60 234 14.0 18.0 0.00 0.02 0.00 82
20260901075903 60 234 14.0 18.0 0.00 0.02 0.00 82
20260901075803 60 235 14.0 18.0 0.00 0.02 0.00 82
20260901075702 60 234 13.0 18.0 0.00 0.02 0.00 81
20260901075602 60 234 13.0 18.0 0.00 0.02 0.00 82
20260901075523 60 234 13.0 18.0 0.00 0.02 0.00 82
20260901075423 60 234 13.0 18.0 0.00 0.02 0.00 82
20260901075306 59 233 12.0 18.0 0.00 0.02 0.00 82
20260901075223 59 234 12.0 18.0 0.00 0.02 0.00 82
20260901075102 59 234 12.0 18.0 0.00 0.02 0.00 82
20260901075002 59 236 11.0 16.0 0.00 0.02 0.00 83
20260901074903 59 237 11.0 16.0 0.00 0.02 0.00 83
20260901074803 59 236 11.0 15.0 0.00 0.02 0.00 83
20260901074703 59 237 11.0 15.0 0.00 0.02 0.00 83
20260901074602 59 236 11.0 15.0 0.00 0.02 0.00 84
20260901074502 59 235 11.0 15.0 0.00 0.02 0.00 83
20260901074402 59 236 10.0 15.0 0.00 0.02 0.00 83
20260901074303 59 237 10.0 14.0 0.00 0.02 0.00 84
20260901074203 59 237 10.0 14.0 0.00 0.02 0.00 84
20260901074123 59 236 10.0 14.0 0.00 0.02 0.00 84
20260901074003 59 236 10.0 14.0 0.00 0.02 0.00 84
20260901073923 59 235 10.0 14.0 0.00 0.02 0.00 84
20260901073824 59 236 10.0 13.0 0.00 0.02 0.00 84
20260901073703 59 235 10.0 13.0 0.00 0.02 0.00 84
20260901073603 59 235 10.0 13.0 0.00 0.02 0.00 84
20260901073503 58 234 10.0 13.0 0.00 0.02 0.00 84
20260901073403 58 234 10.0 13.0 0.00 0.02 0.00 85
20260901073302 58 233 10.0 13.0 0.00 0.02 0.00 85
20260901073202 58 234 10.0 13.0 0.00 0.02 0.00 85
20260901073123 58 234 10.0 13.0 0.00 0.02 0.00 85
20260901073003 58 234 10.0 14.0 0.00 0.02 0.00 86
20260901072903 58 233 10.0 14.0 0.00 0.02 0.00 86
20260901072803 58 232 10.0 14.0 0.00 0.02 0.00 86
20260901072702 58 233 10.0 14.0 0.00 0.02 0.00 86
20260901072602 58 233 10.0 14.0 0.00 0.02 0.00 86
20260901072502 58 233 11.0 14.0 0.00 0.02 0.00 86
20260901072424 58 233 11.0 14.0 0.00 0.02 0.00 86
20260901072308 58 233 10.0 14.0 0.00 0.02 0.00 86
20260901072224 58 232 10.0 14.0 0.00 0.02 0.00 86
20260901072124 58 231 10.0 14.0 0.00 0.02 0.00 86
20260901072003 58 229 10.0 13.0 0.00 0.02 0.00 87
20260901071902 58 229 11.0 13.0 0.00 0.02 0.00 87
20260901071803 58 229 10.0 13.0 0.00 0.02 0.00 87
20260901071703 57 228 10.0 13.0 0.00 0.02 0.00 87
20260901071603 57 229 10.0 13.0 0.00 0.02 0.00 87
20260901071502 57 230 10.0 13.0 0.00 0.02 0.00 88
20260901071403 57 229 10.0 13.0 0.00 0.02 0.00 88
20260901071303 57 229 10.0 13.0 0.00 0.02 0.00 87
20260901071224 57 229 10.0 13.0 0.00 0.02 0.00 87
20260901071102 57 231 10.0 13.0 0.00 0.02 0.00 87
20260901071002 57 233 10.0 13.0 0.00 0.02 0.00 87
20260901070924 57 233 10.0 13.0 0.00 0.02 0.00 87
20260901070803 57 233 10.0 12.0 0.00 0.02 0.00 87
20260901070703 57 234 9.0 12.0 0.00 0.02 0.00 88
20260901070602 57 234 9.0 12.0 0.00 0.02 0.00 88
20260901070503 57 234 9.0 12.0 0.00 0.02 0.00 88
20260901070403 57 234 9.0 12.0 0.00 0.02 0.00 88
20260901070303 57 234 9.0 13.0 0.00 0.02 0.00 88
20260901070203 57 234 9.0 13.0 0.00 0.02 0.00 88
20260901070103 56 233 9.0 13.0 0.00 0.02 0.00 88
20260901070003 56 232 9.0 13.0 0.00 0.02 0.00 88
20260901065903 56 233 9.0 13.0 0.00 0.02 0.00 88
20260901065803 56 233 9.0 13.0 0.00 0.02 0.00 89
20260901065703 56 233 10.0 13.0 0.00 0.02 0.00 88
20260901065603 56 233 9.0 13.0 0.00 0.02 0.00 89
20260901065503 56 233 9.0 13.0 0.00 0.02 0.00 89
20260901065403 56 233 9.0 13.0 0.00 0.02 0.00 89
20260901065305 56 233 9.0 12.0 0.00 0.02 0.00 89
20260901065203 56 233 9.0 12.0 0.00 0.02 0.00 89
20260901065123 56 234 9.0 12.0 0.00 0.02 0.00 89
20260901065003 56 234 8.0 12.0 0.00 0.02 0.00 89
20260901064903 56 234 8.0 12.0 0.00 0.02 0.00 89
20260901064803 56 233 8.0 12.0 0.00 0.02 0.00 90
20260901064702 56 232 8.0 12.0 0.00 0.02 0.00 90
20260901064603 56 232 8.0 12.0 0.00 0.02 0.00 90
20260901064502 56 232 8.0 12.0 0.00 0.02 0.00 90
20260901064402 56 232 8.0 12.0 0.00 0.02 0.00 90
20260901064303 56 231 7.0 12.0 0.00 0.02 0.00 90
20260901064203 56 230 7.0 11.0 0.00 0.02 0.00 90
20260901064103 56 230 7.0 11.0 0.00 0.02 0.00 90
20260901064002 55 230 7.0 10.0 0.00 0.02 0.00 90
20260901063902 55 229 8.0 10.0 0.00 0.02 0.00 90
20260901063804 55 229 8.0 10.0 0.00 0.02 0.00 90
20260901063703 55 230 8.0 10.0 0.00 0.02 0.00 90
20260901063602 55 231 8.0 11.0 0.00 0.02 0.00 90
20260901063503 55 231 8.0 11.0 0.00 0.02 0.00 90
20260901063403 55 233 8.0 11.0 0.00 0.02 0.00 90
20260901063303 55 233 8.0 12.0 0.00 0.02 0.00 90
20260901063202 55 234 8.0 12.0 0.00 0.02 0.00 90
20260901063103 55 234 8.0 12.0 0.00 0.02 0.00 90
20260901063004 55 235 9.0 12.0 0.00 0.02 0.00 89
20260901062903 55 235 9.0 12.0 0.00 0.02 0.00 89
20260901062804 55 234 9.0 12.0 0.00 0.02 0.00 89
20260901062703 55 234 9.0 12.0 0.00 0.02 0.00 89
20260901062623 55 233 9.0 12.0 0.00 0.02 0.00 89
20260901062503 55 232 9.0 12.0 0.00 0.02 0.00 90
20260901062403 55 230 9.0 12.0 0.00 0.02 0.00 89
20260901062324 55 230 9.0 12.0 0.00 0.02 0.00 89
20260901062202 55 229 9.0 12.0 0.00 0.02 0.00 90
20260901062103 55 228 9.0 12.0 0.00 0.02 0.00 89
20260901062003 55 228 9.0 12.0 0.00 0.02 0.00 89
20260901061903 55 227 9.0 11.0 0.00 0.02 0.00 90
20260901061803 55 226 8.0 11.0 0.00 0.02 0.00 90
20260901061703 55 225 8.0 11.0 0.00 0.02 0.00 90
20260901061602 55 225 8.0 11.0 0.00 0.02 0.00 90
20260901061503 55 224 8.0 11.0 0.00 0.02 0.00 90
20260901061402 55 224 8.0 11.0 0.00 0.02 0.00 90
20260901061303 55 224 8.0 11.0 0.00 0.02 0.00 90
20260901061202 55 223 7.0 11.0 0.00 0.02 0.00 90
20260901061103 55 222 7.0 10.0 0.00 0.02 0.00 90
20260901061003 55 221 7.0 10.0 0.00 0.02 0.00 90
20260901060903 55 221 7.0 10.0 0.00 0.02 0.00 90
20260901060823 55 220 7.0 10.0 0.00 0.02 0.00 90
20260901060702 55 219 7.0 10.0 0.00 0.02 0.00 90
20260901060603 55 219 7.0 10.0 0.00 0.02 0.00 90
20260901060503 55 218 7.0 10.0 0.00 0.02 0.00 90
20260901060402 55 217 7.0 10.0 0.00 0.02 0.00 90
20260901060302 55 216 7.0 10.0 0.00 0.02 0.00 90
20260901060203 55 216 7.0 10.0 0.00 0.02 0.00 90
20260901060003 55 216 6.0 10.0 0.00 0.02 0.00 90
20260901055903 55 216 6.0 9.0 0.00 0.02 0.00 90
20260901055803 55 217 7.0 9.0 0.00 0.02 0.00 90
20260901055703 55 218 6.0 9.0 0.00 0.02 0.00 90
20260901055602 55 218 6.0 9.0 0.00 0.02 0.00 90
20260901055503 55 219 6.0 9.0 0.00 0.02 0.00 90
20260901055403 55 219 6.0 9.0 0.00 0.02 0.00 90
20260901055306 55 219 6.0 9.0 0.00 0.02 0.00 90
20260901055202 55 219 6.0 9.0 0.00 0.02 0.00 90
20260901055102 55 220 6.0 8.0 0.00 0.02 0.00 90
20260901055003 55 220 5.0 8.0 0.00 0.02 0.00 90
20260901054903 55 221 5.0 8.0 0.00 0.02 0.00 90
20260901054803 55 221 5.0 8.0 0.00 0.02 0.00 90
20260901054703 55 220 5.0 7.0 0.00 0.02 0.00 90
20260901054603 55 221 5.0 7.0 0.00 0.02 0.00 90
20260901054503 55 221 6.0 7.0 0.00 0.02 0.00 90
20260901054402 55 221 6.0 8.0 0.00 0.02 0.00 91
20260901054324 55 221 6.0 8.0 0.00 0.02 0.00 91
20260901054203 55 222 6.0 8.0 0.00 0.02 0.00 91
20260901054103 55 222 6.0 8.0 0.00 0.02 0.00 91
20260901054003 55 222 6.0 8.0 0.00 0.02 0.00 90
20260901053903 55 222 6.0 8.0 0.00 0.02 0.00 91
20260901053803 55 223 6.0 8.0 0.00 0.02 0.00 91
20260901053702 55 223 6.0 8.0 0.00 0.02 0.00 91
20260901053603 55 223 6.0 9.0 0.00 0.02 0.00 91
20260901053502 55 224 6.0 9.0 0.00 0.02 0.00 91
20260901053403 55 225 6.0 9.0 0.00 0.02 0.00 91
20260901053323 55 225 6.0 9.0 0.00 0.02 0.00 91
20260901053203 55 226 6.0 9.0 0.00 0.02 0.00 91
20260901053103 55 226 6.0 9.0 0.00 0.02 0.00 91
20260901053003 55 226 6.0 9.0 0.00 0.02 0.00 91
20260901052903 55 227 6.0 9.0 0.00 0.02 0.00 91
20260901052803 55 226 6.0 9.0 0.00 0.02 0.00 91
20260901052703 54 227 6.0 9.0 0.00 0.02 0.00 91
20260901052624 54 227 6.0 9.0 0.00 0.02 0.00 91
20260901052503 55 228 6.0 8.0 0.00 0.02 0.00 91
20260901052424 54 228 6.0 8.0 0.00 0.02 0.00 91
20260901052306 54 228 6.0 8.0 0.00 0.02 0.00 91
20260901052224 54 228 6.0 8.0 0.00 0.02 0.00 91
20260901052102 54 228 6.0 8.0 0.00 0.02 0.00 91
20260901052003 54 229 6.0 8.0 0.00 0.02 0.00 91
20260901051903 54 228 6.0 8.0 0.00 0.02 0.00 91
20260901051803 54 228 6.0 8.0 0.00 0.02 0.00 92
20260901051703 54 229 6.0 8.0 0.00 0.02 0.00 92
20260901051603 54 229 6.0 8.0 0.00 0.02 0.00 92
20260901051524 54 229 6.0 8.0 0.00 0.02 0.00 92
20260901051402 54 228 6.0 8.0 0.00 0.02 0.00 92
20260901051303 54 228 6.0 8.0 0.00 0.02 0.00 92
20260901051203 54 228 6.0 8.0 0.00 0.02 0.00 92
20260901051102 54 228 6.0 8.0 0.00 0.02 0.00 92
20260901051024 54 227 6.0 8.0 0.00 0.02 0.00 92
20260901050903 54 227 5.0 8.0 0.00 0.02 0.00 92
20260901050804 54 226 5.0 8.0 0.00 0.02 0.00 93
20260901050703 54 226 5.0 8.0 0.00 0.02 0.00 93
20260901050623 54 225 5.0 8.0 0.00 0.02 0.00 93
20260901050503 54 225 5.0 7.0 0.00 0.02 0.00 93
20260901050403 54 225 5.0 7.0 0.00 0.02 0.00 92
20260901050303 54 225 5.0 7.0 0.00 0.02 0.00 92
20260901050203 54 225 5.0 7.0 0.00 0.02 0.00 93
20260901050003 54 225 5.0 7.0 0.00 0.02 0.00 93
20260901045903 54 225 5.0 7.0 0.00 0.02 0.00 93
20260901045803 54 225 5.0 7.0 0.00 0.02 0.00 93
20260901045703 54 224 5.0 7.0 0.00 0.02 0.00 93
20260901045603 54 223 5.0 7.0 0.00 0.02 0.00 93
20260901045503 54 223 5.0 7.0 0.00 0.02 0.00 93
20260901045403 54 222 5.0 7.0 0.00 0.02 0.00 93
20260901045306 54 221 5.0 7.0 0.00 0.02 0.00 93
20260901045203 54 221 5.0 7.0 0.00 0.02 0.00 93
20260901045103 53 221 5.0 7.0 0.00 0.02 0.00 93
20260901045003 53 220 5.0 7.0 0.00 0.02 0.00 93
20260901044924 53 220 5.0 7.0 0.00 0.02 0.00 93
20260901044803 53 221 4.0 7.0 0.00 0.02 0.00 93
20260901044703 53 222 4.0 7.0 0.00 0.02 0.00 93
20260901044603 53 223 4.0 6.0 0.00 0.02 0.00 93
20260901044505 53 224 3.0 6.0 0.00 0.02 0.00 93
20260901044403 53 224 3.0 6.0 0.00 0.02 0.00 93
20260901044303 53 225 3.0 6.0 0.00 0.02 0.00 93
20260901044204 53 227 3.0 5.0 0.00 0.02 0.00 93
20260901044102 53 228 3.0 5.0 0.00 0.02 0.00 93
20260901044003 53 229 2.0 5.0 0.00 0.02 0.00 93
20260901043903 53 230 2.0 5.0 0.00 0.02 0.00 93
20260901043803 53 230 2.0 5.0 0.00 0.02 0.00 93
20260901043703 53 230 2.0 5.0 0.00 0.02 0.00 93
20260901043602 53 230 2.0 5.0 0.00 0.02 0.00 93
20260901043524 53 230 2.0 5.0 0.00 0.02 0.00 93
20260901043403 53 230 2.0 5.0 0.00 0.02 0.00 93
20260901043303 53 230 2.0 5.0 0.00 0.02 0.00 93
20260901043203 53 230 2.0 5.0 0.00 0.02 0.00 93
20260901043102 53 230 3.0 5.0 0.00 0.02 0.00 93
20260901043003 53 230 3.0 5.0 0.00 0.02 0.00 93
20260901042903 53 230 3.0 6.0 0.00 0.02 0.00 93
20260901042803 53 230 3.0 6.0 0.00 0.02 0.00 93
20260901042703 53 230 4.0 6.0 0.00 0.02 0.00 93
20260901042603 53 230 4.0 6.0 0.00 0.02 0.00 93
20260901042525 53 230 4.0 6.0 0.00 0.02 0.00 93
20260901042403 53 230 4.0 6.0 0.00 0.02 0.00 92
20260901042324 53 231 4.0 6.0 0.00 0.02 0.00 92
20260901042203 53 231 4.0 6.0 0.00 0.02 0.00 93
20260901042103 53 231 4.0 6.0 0.00 0.02 0.00 93
20260901042003 53 232 4.0 6.0 0.00 0.02 0.00 93
20260901041903 53 233 3.0 6.0 0.00 0.02 0.00 92
20260901041824 53 234 3.0 6.0 0.00 0.02 0.00 92
20260901041703 53 235 3.0 5.0 0.00 0.02 0.00 92
20260901041603 53 236 3.0 5.0 0.00 0.02 0.00 92
20260901041504 53 237 3.0 5.0 0.00 0.02 0.00 92
20260901041424 53 237 3.0 5.0 0.00 0.02 0.00 92
20260901041303 53 238 3.0 5.0 0.00 0.02 0.00 92
20260901041203 53 239 3.0 5.0 0.00 0.02 0.00 92
20260901041103 53 241 3.0 5.0 0.00 0.02 0.00 92
20260901041003 53 241 2.0 5.0 0.00 0.02 0.00 92
20260901040903 53 241 3.0 5.0 0.00 0.02 0.00 92
20260901040803 53 242 3.0 5.0 0.00 0.02 0.00 92
20260901040724 53 242 3.0 5.0 0.00 0.02 0.00 92
20260901040603 53 242 3.0 5.0 0.00 0.02 0.00 92
20260901040503 53 242 3.0 5.0 0.00 0.02 0.00 92
20260901040404 53 242 4.0 5.0 0.00 0.02 0.00 92
20260901040303 53 242 4.0 6.0 0.00 0.02 0.00 92
20260901040202 53 243 4.0 6.0 0.00 0.02 0.00 92
20260901040003 53 243 4.0 6.0 0.00 0.02 0.00 92
20260901035903 53 244 4.0 6.0 0.00 0.02 0.00 92
20260901035824 53 244 4.0 6.0 0.00 0.02 0.00 92
20260901035703 53 244 5.0 6.0 0.00 0.02 0.00 92
20260901035604 53 243 5.0 6.0 0.00 0.02 0.00 92
20260901035503 53 243 5.0 6.0 0.00 0.02 0.00 92
20260901035403 53 242 5.0 6.0 0.00 0.02 0.00 92
20260901035305 53 241 5.0 6.0 0.00 0.02 0.00 92
20260901035203 53 240 5.0 6.0 0.00 0.02 0.00 92
20260901035103 53 239 5.0 6.0 0.00 0.02 0.00 92
20260901035003 53 238 5.0 6.0 0.00 0.02 0.00 92
20260901034903 53 237 5.0 6.0 0.00 0.02 0.00 92
20260901034803 53 236 5.0 6.0 0.00 0.02 0.00 92
20260901034724 53 235 5.0 6.0 0.00 0.02 0.00 92
20260901034603 53 231 5.0 6.0 0.00 0.02 0.00 91
20260901034524 53 230 5.0 6.0 0.00 0.02 0.00 91
20260901034403 53 227 5.0 6.0 0.00 0.02 0.00 91
20260901034303 53 225 4.0 6.0 0.00 0.02 0.00 91
20260901034203 53 222 4.0 6.0 0.00 0.02 0.00 91
20260901034103 53 219 4.0 6.0 0.00 0.02 0.00 91
20260901034003 53 216 4.0 6.0 0.00 0.02 0.00 91
20260901033903 53 212 4.0 6.0 0.00 0.02 0.00 90
20260901033803 53 208 4.0 6.0 0.00 0.02 0.00 90
20260901033703 53 206 4.0 5.0 0.00 0.02 0.00 90
20260901033603 53 204 4.0 5.0 0.00 0.02 0.00 90
20260901033503 53 203 4.0 5.0 0.00 0.02 0.00 90
20260901033403 53 202 4.0 5.0 0.00 0.02 0.00 90
20260901033303 53 200 3.0 5.0 0.00 0.02 0.00 90
20260901033203 53 199 3.0 5.0 0.00 0.02 0.00 90
20260901033103 53 199 3.0 5.0 0.00 0.02 0.00 90
20260901033003 53 199 4.0 5.0 0.00 0.02 0.00 90
20260901032924 54 199 4.0 5.0 0.00 0.02 0.00 90
20260901032803 54 199 4.0 5.0 0.00 0.02 0.00 90
20260901032724 54 199 4.0 5.0 0.00 0.02 0.00 90
20260901032603 54 199 4.0 5.0 0.00 0.02 0.00 90
20260901032503 54 199 4.0 6.0 0.00 0.02 0.00 90
20260901032403 54 199 4.0 6.0 0.00 0.02 0.00 90
20260901032306 54 199 4.0 6.0 0.00 0.02 0.00 90
20260901032203 54 199 5.0 6.0 0.00 0.02 0.00 90
20260901032103 54 199 5.0 6.0 0.00 0.02 0.00 90
20260901032003 54 199 5.0 6.0 0.00 0.02 0.00 89
20260901031903 54 199 5.0 6.0 0.00 0.02 0.00 89
20260901031803 54 199 5.0 6.0 0.00 0.02 0.00 89
20260901031703 54 200 5.0 6.0 0.00 0.02 0.00 89
20260901031624 54 200 5.0 6.0 0.00 0.02 0.00 89
20260901031503 54 200 4.0 6.0 0.00 0.02 0.00 89
20260901031403 54 203 4.0 6.0 0.00 0.02 0.00 89
20260901031323 54 205 4.0 6.0 0.00 0.02 0.00 89
20260901031203 54 209 4.0 6.0 0.00 0.02 0.00 89
20260901031103 54 212 3.0 6.0 0.00 0.02 0.00 89
20260901031003 54 216 3.0 6.0 0.00 0.02 0.00 89
20260901030903 54 219 3.0 6.0 0.00 0.02 0.00 89
20260901030803 54 224 3.0 6.0 0.00 0.02 0.00 89
20260901030703 55 229 3.0 6.0 0.00 0.02 0.00 89
20260901030603 55 235 3.0 5.0 0.00 0.02 0.00 89
20260901030503 55 240 3.0 7.0 0.00 0.02 0.00 89
20260901030403 55 242 3.0 7.0 0.00 0.02 0.00 89
20260901030324 55 242 3.0 7.0 0.00 0.02 0.00 89
20260901030224 55 242 3.0 7.0 0.00 0.02 0.00 89
20260901030003 55 242 4.0 7.0 0.00 0.02 0.00 89
20260901025903 55 242 5.0 7.0 0.00 0.02 0.00 89
20260901025803 55 243 5.0 7.0 0.00 0.02 0.00 89
20260901025724 55 244 5.0 7.0 0.00 0.02 0.00 89
20260901025603 55 244 5.0 8.0 0.00 0.02 0.00 89
20260901025524 55 244 5.0 8.0 0.00 0.02 0.00 89
20260901025403 55 243 4.0 8.0 0.00 0.02 0.00 89
20260901025305 55 243 4.0 8.0 0.00 0.02 0.00 89
20260901025203 55 244 4.0 8.0 0.00 0.02 0.00 89
20260901025103 55 245 4.0 8.0 0.00 0.02 0.00 89
20260901025003 55 246 3.0 8.0 0.00 0.02 0.00 89
20260901024924 55 247 3.0 8.0 0.00 0.02 0.00 89
20260901024803 55 248 4.0 8.0 0.00 0.02 0.00 89
20260901024703 55 249 4.0 8.0 0.00 0.02 0.00 89
20260901024603 55 249 4.0 8.0 0.00 0.02 0.00 89
20260901024503 55 251 4.0 8.0 0.00 0.02 0.00 89
20260901024403 55 253 4.0 8.0 0.00 0.02 0.00 89
20260901024324 55 254 4.0 8.0 0.00 0.02 0.00 89
20260901024203 55 254 4.0 8.0 0.00 0.02 0.00 89
20260901024103 55 256 4.0 8.0 0.00 0.02 0.00 89
20260901024003 55 256 4.0 8.0 0.00 0.02 0.00 89
20260901023903 55 256 4.0 8.0 0.00 0.02 0.00 89
20260901023803 55 255 5.0 8.0 0.00 0.02 0.00 89
20260901023703 55 254 5.0 8.0 0.00 0.02 0.00 89
20260901023624 55 255 5.0 8.0 0.00 0.02 0.00 89
20260901023503 55 255 5.0 7.0 0.00 0.02 0.00 88
20260901023403 55 254 5.0 7.0 0.00 0.02 0.00 88
20260901023303 55 254 5.0 7.0 0.00 0.02 0.00 88
20260901023203 55 254 5.0 7.0 0.00 0.02 0.00 89
20260901023124 55 253 5.0 7.0 0.00 0.02 0.00 89
20260901023003 55 253 4.0 7.0 0.00 0.02 0.00 88
20260901022924 55 253 4.0 7.0 0.00 0.02 0.00 88
20260901022803 55 254 4.0 7.0 0.00 0.02 0.00 88
20260901022703 55 253 4.0 7.0 0.00 0.02 0.00 88
20260901022604 55 253 4.0 7.0 0.00 0.02 0.00 88
20260901022503 55 253 4.0 7.0 0.00 0.02 0.00 88
20260901022403 55 254 4.0 7.0 0.00 0.02 0.00 88
20260901022305 55 256 3.0 7.0 0.00 0.02 0.00 88
20260901022203 55 257 3.0 7.0 0.00 0.02 0.00 88
20260901022124 55 258 3.0 7.0 0.00 0.02 0.00 88
20260901022003 55 260 3.0 7.0 0.00 0.02 0.00 88
20260901021903 55 261 3.0 7.0 0.00 0.02 0.00 88
20260901021803 55 263 3.0 7.0 0.00 0.02 0.00 88
20260901021724 55 264 3.0 7.0 0.00 0.02 0.00 88
20260901021603 55 267 3.0 6.0 0.00 0.02 0.00 88
20260901021503 55 267 3.0 6.0 0.00 0.02 0.00 88
20260901021403 55 268 3.0 6.0 0.00 0.02 0.00 88
20260901021303 55 266 3.0 6.0 0.00 0.02 0.00 88
20260901021203 55 267 3.0 6.0 0.00 0.02 0.00 88
20260901021103 55 266 3.0 7.0 0.00 0.02 0.00 88
20260901021003 55 267 3.0 7.0 0.00 0.02 0.00 88
20260901020903 55 269 3.0 7.0 0.00 0.02 0.00 88
20260901020803 55 268 3.0 7.0 0.00 0.02 0.00 88
20260901020703 55 268 3.0 7.0 0.00 0.02 0.00 88
20260901020603 55 269 3.0 7.0 0.00 0.02 0.00 88
20260901020504 55 269 3.0 7.0 0.00 0.02 0.00 88
20260901020403 55 267 3.0 7.0 0.00 0.02 0.00 88
20260901020303 55 269 3.0 7.0 0.00 0.02 0.00 87
20260901020203 55 269 3.0 7.0 0.00 0.02 0.00 87
20260901020025 55 269 3.0 7.0 0.00 0.02 0.00 87
20260901015903 55 265 3.0 6.0 0.00 0.02 0.00 87
20260901015803 55 264 3.0 6.0 0.00 0.02 0.00 87
20260901015703 55 261 2.0 6.0 0.00 0.02 0.00 87
20260901015603 55 261 2.0 6.0 0.00 0.02 0.00 87
20260901015503 55 261 2.0 6.0 0.00 0.02 0.00 87
20260901015403 55 263 2.0 5.0 0.00 0.02 0.00 87
20260901015305 55 261 2.0 5.0 0.00 0.02 0.00 87
20260901015203 55 259 2.0 7.0 0.00 0.02 0.00 87
20260901015103 55 258 2.0 7.0 0.00 0.02 0.00 87
20260901015003 55 259 2.0 7.0 0.00 0.02 0.00 87
20260901014924 55 259 2.0 7.0 0.00 0.02 0.00 87
20260901014803 55 260 3.0 7.0 0.00 0.02 0.00 87
20260901014703 55 262 3.0 7.0 0.00 0.02 0.00 87
20260901014603 55 262 3.0 7.0 0.00 0.02 0.00 87
20260901014503 56 261 3.0 7.0 0.00 0.02 0.00 87
20260901014403 56 261 3.0 7.0 0.00 0.02 0.00 87
20260901014324 56 262 3.0 7.0 0.00 0.02 0.00 87
20260901014203 56 264 4.0 7.0 0.00 0.02 0.00 86
20260901014103 56 264 4.0 7.0 0.00 0.02 0.00 86
20260901014003 56 263 4.0 7.0 0.00 0.02 0.00 86
20260901013904 56 265 4.0 7.0 0.00 0.02 0.00 86
20260901013803 56 264 4.0 7.0 0.00 0.02 0.00 86
20260901013724 56 264 4.0 7.0 0.00 0.02 0.00 86
20260901013603 56 267 4.0 7.0 0.00 0.02 0.00 86
20260901013503 56 270 5.0 8.0 0.00 0.02 0.00 86
20260901013403 56 270 5.0 8.0 0.00 0.02 0.00 86
20260901013324 56 271 5.0 8.0 0.00 0.02 0.00 86
20260901013203 56 273 5.0 9.0 0.00 0.02 0.00 86
20260901013103 56 275 5.0 10.0 0.00 0.02 0.00 86
20260901013003 56 276 6.0 10.0 0.00 0.02 0.00 86
20260901012903 56 277 6.0 10.0 0.00 0.02 0.00 86
20260901012803 56 278 6.0 10.0 0.00 0.02 0.00 86
20260901012703 56 278 6.0 10.0 0.00 0.02 0.00 86
20260901012603 56 279 6.0 10.0 0.00 0.02 0.00 86
20260901012503 56 279 7.0 10.0 0.00 0.02 0.00 86
20260901012403 56 280 7.0 11.0 0.00 0.02 0.00 86
20260901012306 56 281 7.0 11.0 0.00 0.02 0.00 86
20260901012203 56 280 7.0 11.0 0.00 0.02 0.00 86
20260901012103 56 279 7.0 11.0 0.00 0.02 0.00 86
20260901012003 56 280 7.0 11.0 0.00 0.02 0.00 86
20260901011903 56 280 7.0 11.0 0.00 0.02 0.00 86
20260901011803 56 280 7.0 11.0 0.00 0.02 0.00 86
20260901011703 56 281 7.0 11.0 0.00 0.02 0.00 86
20260901011603 56 281 7.0 11.0 0.00 0.02 0.00 86
20260901011503 56 280 7.0 11.0 0.00 0.02 0.00 86
20260901011404 56 278 7.0 11.0 0.00 0.02 0.00 86
20260901011324 56 278 7.0 11.0 0.00 0.02 0.00 86
20260901011203 56 278 7.0 10.0 0.00 0.02 0.00 86
20260901011103 56 278 7.0 10.0 0.00 0.02 0.00 86
20260901011024 56 278 7.0 10.0 0.00 0.02 0.00 86
20260901010903 56 276 7.0 10.0 0.00 0.02 0.00 86
20260901010803 56 277 7.0 10.0 0.00 0.02 0.00 86
20260901010724 56 276 7.0 10.0 0.00 0.02 0.00 86
20260901010624 56 275 7.0 10.0 0.00 0.02 0.00 86
20260901010503 56 275 7.0 10.0 0.00 0.02 0.00 86
20260901010403 56 275 7.0 10.0 0.00 0.02 0.00 86
20260901010324 56 276 7.0 11.0 0.00 0.02 0.00 86
20260901010203 56 277 7.0 11.0 0.00 0.02 0.00 86
20260901010003 56 276 8.0 12.0 0.00 0.03 0.00 86
20260901005903 56 276 8.0 12.0 0.00 0.03 0.00 86
20260901005804 56 276 8.0 12.0 0.00 0.04 0.00 86
20260901005704 56 276 8.0 12.0 0.00 0.04 0.00 86
20260901005603 56 276 8.0 12.0 0.00 0.04 0.00 86
20260901005503 56 277 8.0 12.0 0.00 0.06 0.00 86
20260901005403 56 277 8.0 12.0 0.00 0.07 0.00 86
20260901005306 56 278 9.0 12.0 0.00 0.09 0.00 86
20260901005203 56 279 9.0 12.0 0.00 0.09 0.00 86
20260901005103 56 280 9.0 12.0 0.00 0.11 0.00 86
20260901005024 56 280 9.0 12.0 0.00 0.14 0.00 86
20260901004903 56 282 9.0 12.0 0.00 0.16 0.00 86
20260901004803 56 283 9.0 12.0 0.00 0.18 0.00 86
20260901004703 56 282 9.0 12.0 0.00 0.20 0.00 86
20260901004603 56 283 9.0 12.0 0.00 0.20 0.00 86
20260901004524 56 283 9.0 12.0 0.00 0.22 0.00 86
20260901004403 56 283 9.0 12.0 0.00 0.24 0.00 86
20260901004303 56 283 9.0 12.0 0.00 0.26 0.00 86
20260901004203 56 283 9.0 12.0 0.00 0.29 0.00 86
20260901004103 56 283 9.0 12.0 0.00 0.31 0.00 86
20260901004003 56 283 8.0 12.0 0.00 0.31 0.00 85
20260901003903 56 282 8.0 12.0 0.00 0.32 0.00 85
20260901003824 56 282 8.0 12.0 0.00 0.34 0.00 85
20260901003703 56 282 8.0 12.0 0.00 0.35 0.00 86
20260901003603 56 282 8.0 12.0 0.00 0.35 0.00 86
20260901003503 56 282 8.0 12.0 0.00 0.35 0.00 86
20260901003403 56 282 8.0 12.0 0.00 0.36 0.00 86
20260901003303 56 282 8.0 12.0 0.00 0.36 0.00 86
20260901003224 56 281 8.0 14.0 0.00 0.36 0.00 86
20260901003103 56 282 8.0 14.0 0.00 0.36 0.00 85
20260901003003 57 282 8.0 14.0 0.00 0.36 0.00 85
20260901002925 57 282 8.0 14.0 0.00 0.37 0.00 85
20260901002824 57 283 8.0 14.0 0.00 0.37 0.00 85
20260901002703 57 284 8.0 14.0 0.00 0.37 0.00 85
20260901002603 57 284 8.0 14.0 0.00 0.37 0.00 85
20260901002503 57 284 8.0 14.0 0.00 0.38 0.00 85
20260901002403 57 285 8.0 14.0 0.00 0.38 0.00 85
20260901002305 57 284 8.0 14.0 0.00 0.38 0.00 85
20260901002203 57 285 8.0 11.0 0.00 0.38 0.00 85
20260901002103 57 285 8.0 11.0 0.00 0.38 0.00 85
20260901002003 57 286 8.0 11.0 0.00 0.39 0.00 85
20260901001903 57 287 8.0 10.0 0.00 0.40 0.00 85
20260901001803 57 287 8.0 11.0 0.00 0.42 0.00 85
20260901001703 57 287 8.0 11.0 0.00 0.45 0.00 85
20260901001603 57 287 8.0 11.0 0.00 0.47 0.00 85
20260901001524 57 287 8.0 11.0 0.00 0.48 0.00 85
20260901001403 57 286 7.0 11.0 0.00 0.48 0.00 85
20260901001303 57 286 7.0 11.0 0.00 0.49 0.00 85
20260901001203 57 285 7.0 11.0 0.00 0.49 0.00 85
20260901001103 57 285 7.0 11.0 0.00 0.49 0.00 85
20260901001003 57 284 7.0 11.0 0.00 0.49 0.00 85
20260901000903 57 283 7.0 11.0 0.00 0.49 0.00 85
20260901000803 57 282 6.0 10.0 0.00 0.49 0.00 85
20260901000724 57 280 6.0 10.0 0.00 0.49 0.00 85
20260901000603 57 280 6.0 11.0 0.00 0.49 0.00 85
20260901000503 57 278 6.0 11.0 0.00 0.49 0.00 85
20260901000405 57 278 6.0 11.0 0.00 0.49 0.00 85
20260901000303 57 279 6.0 11.0 0.00 0.49 0.00 85
20260901000225 57 279 6.0 11.0 0.00 0.49 0.00 85
20260901000103 57 277 5.0 11.0 0.00 0.49 0.00 85
20260901000003 57 277 5.0 11.0 0.00 0.49 0.00 85
20260831235903 57 277 5.0 11.0 0.00 0.49 0.00 85
20260831235803 57 276 5.0 11.0 0.00 0.49 0.00 85
20260831235703 57 277 5.0 11.0 0.00 0.49 0.00 85
20260831235603 57 276 5.0 9.0 0.00 0.49 0.00 85
20260831235524 57 275 5.0 9.0 0.00 0.49 0.00 85
20260831235403 57 276 6.0 10.0 0.00 0.49 0.00 85
20260831235324 57 276 6.0 10.0 0.00 0.49 0.00 85
20260831235203 57 276 6.0 10.0 0.00 0.49 0.00 85
20260831235103 57 275 6.0 10.0 0.00 0.49 0.00 85
20260831235024 57 275 6.0 10.0 0.00 0.49 0.00 85
20260831234903 57 274 6.0 10.0 0.00 0.49 0.00 85
20260831234803 57 275 6.0 10.0 0.00 0.49 0.00 85
20260831234703 57 274 6.0 10.0 0.00 0.49 0.00 85
20260831234603 57 274 6.0 10.0 0.00 0.49 0.00 85
20260831234503 57 274 6.0 10.0 0.00 0.49 0.00 85
20260831234403 57 272 6.0 10.0 0.00 0.49 0.00 85
20260831234303 57 272 6.0 10.0 0.00 0.49 0.00 85
20260831234204 57 271 6.0 10.0 0.00 0.49 0.00 85
20260831234103 57 272 7.0 10.0 0.00 0.49 0.00 85
20260831234004 57 273 7.0 10.0 0.00 0.49 0.00 85
20260831233903 57 272 7.0 10.0 0.00 0.49 0.00 85
20260831233803 57 270 7.0 10.0 0.00 0.49 0.00 85
20260831233703 57 270 6.0 10.0 0.00 0.49 0.00 85
20260831233604 57 268 6.0 10.0 0.00 0.49 0.00 85
20260831233524 57 268 6.0 10.0 0.00 0.49 0.00 85
20260831233403 57 266 6.0 10.0 0.00 0.49 0.00 85
20260831233324 57 266 6.0 10.0 0.00 0.49 0.00 85
20260831233203 57 266 6.0 10.0 0.00 0.50 0.00 85
20260831233125 57 266 6.0 10.0 0.00 0.50 0.00 85
20260831233003 57 265 6.0 10.0 0.00 0.50 0.00 85
20260831232924 57 263 6.0 10.0 0.00 0.50 0.00 85
20260831232803 57 264 6.0 10.0 0.00 0.50 0.00 84
20260831232704 57 265 6.0 10.0 0.00 0.50 0.00 85
20260831232603 57 266 6.0 10.0 0.00 0.50 0.00 85
20260831232503 57 266 6.0 10.0 0.00 0.50 0.00 84
20260831232424 57 267 6.0 9.0 0.00 0.50 0.00 84
20260831232305 57 267 6.0 9.0 0.00 0.50 0.00 84
20260831232203 57 266 6.0 9.0 0.00 0.50 0.00 84
20260831232103 57 265 6.0 9.0 0.00 0.50 0.00 84
20260831232003 57 267 6.0 9.0 0.00 0.50 0.00 84
20260831231903 57 269 6.0 10.0 0.00 0.50 0.00 84
20260831231803 57 270 6.0 10.0 0.00 0.50 0.00 84
20260831231703 57 271 7.0 10.0 0.00 0.50 0.00 84
20260831231624 57 272 7.0 10.0 0.00 0.50 0.00 84
20260831231503 57 274 7.0 10.0 0.00 0.50 0.00 84
20260831231424 57 273 7.0 10.0 0.00 0.50 0.00 84
20260831231303 57 276 7.0 10.0 0.00 0.50 0.00 84
20260831231203 57 277 7.0 10.0 0.00 0.50 0.00 84
20260831231103 57 279 7.0 10.0 0.00 0.50 0.00 84
20260831231003 57 278 7.0 10.0 0.00 0.50 0.00 84
20260831230903 57 277 7.0 12.0 0.00 0.50 0.00 84
20260831230824 57 276 7.0 12.0 0.00 0.50 0.00 84
20260831230703 57 276 7.0 12.0 0.00 0.50 0.00 84
20260831230603 57 274 7.0 12.0 0.00 0.50 0.00 84
20260831230503 57 272 7.0 12.0 0.00 0.50 0.00 83
20260831230403 57 271 7.0 12.0 0.00 0.50 0.00 83
20260831230324 57 269 7.0 12.0 0.00 0.50 0.00 83
20260831230203 57 268 7.0 12.0 0.00 0.51 0.00 83
20260831230003 57 268 6.0 12.0 0.00 0.51 0.00 83
20260831225924 57 269 6.0 10.0 0.00 0.51 0.51 83
20260831225803 57 269 6.0 10.0 0.00 0.51 0.51 83
20260831225703 57 267 6.0 10.0 0.00 0.51 0.51 83
20260831225624 57 267 6.0 10.0 0.00 0.51 0.51 83
20260831225524 57 267 6.0 10.0 0.00 0.51 0.51 83
20260831225403 57 268 5.0 10.0 0.00 0.51 0.51 83
20260831225324 57 269 5.0 10.0 0.00 0.51 0.51 83
20260831225203 57 268 5.0 10.0 0.00 0.52 0.51 83
20260831225103 57 265 6.0 10.0 0.00 0.52 0.51 83
20260831225003 57 264 6.0 10.0 0.00 0.52 0.51 83
20260831224924 57 262 6.0 10.0 0.00 0.52 0.51 83
20260831224804 57 262 6.0 10.0 0.00 0.52 0.51 83
20260831224724 57 263 6.0 10.0 0.00 0.52 0.51 83
20260831224624 57 266 6.0 10.0 0.00 0.52 0.51 83
20260831224524 57 266 6.0 9.0 0.00 0.52 0.51 83
20260831224403 57 267 6.0 11.0 0.00 0.52 0.51 83
20260831224303 57 267 6.0 11.0 0.00 0.52 0.51 83
20260831224203 57 268 6.0 11.0 0.00 0.53 0.51 83
20260831224124 57 268 6.0 11.0 0.00 0.53 0.51 83
20260831224003 57 271 7.0 11.0 0.00 0.53 0.51 83
20260831223903 57 272 7.0 11.0 0.00 0.53 0.51 83
20260831223803 57 272 7.0 11.0 0.00 0.54 0.51 83
20260831223724 57 273 7.0 13.0 0.00 0.54 0.51 83
20260831223603 58 273 8.0 13.0 0.00 0.54 0.51 83
20260831223503 58 274 8.0 13.0 0.00 0.54 0.51 83
20260831223403 58 273 8.0 13.0 0.00 0.54 0.51 83
20260831223324 58 274 8.0 13.0 0.00 0.55 0.51 83
20260831223224 58 273 8.0 13.0 0.00 0.55 0.51 83
20260831223103 58 273 8.0 14.0 0.00 0.56 0.51 83
20260831223024 58 274 8.0 14.0 0.00 0.56 0.51 83
20260831222903 58 275 8.0 14.0 0.00 0.56 0.51 83
20260831222803 58 275 8.0 15.0 0.00 0.56 0.51 83
20260831222703 58 276 8.0 15.0 0.00 0.57 0.51 83
20260831222603 58 277 8.0 15.0 0.00 0.57 0.51 83
20260831222503 58 276 9.0 15.0 0.00 0.57 0.51 83
20260831222403 58 275 9.0 15.0 0.00 0.57 0.51 83
20260831222306 58 276 9.0 15.0 0.00 0.57 0.51 83
20260831222224 58 277 9.0 15.0 0.00 0.57 0.51 83
20260831222103 58 277 9.0 15.0 0.00 0.57 0.51 83
20260831222003 58 276 9.0 15.0 0.00 0.57 0.51 83
20260831221903 58 275 9.0 15.0 0.00 0.57 0.51 83
20260831221803 58 273 8.0 15.0 0.00 0.58 0.51 83
20260831221704 58 271 8.0 13.0 0.00 0.58 0.51 83
20260831221603 57 268 8.0 13.0 0.00 0.58 0.51 83
20260831221524 57 267 8.0 13.0 0.00 0.58 0.51 83
20260831221424 57 266 8.0 13.0 0.00 0.58 0.51 83
20260831221303 57 263 8.0 13.0 0.00 0.59 0.51 83
20260831221203 57 260 8.0 13.0 0.00 0.60 0.51 83
20260831221103 57 259 8.0 13.0 0.00 0.61 0.51 83
20260831221003 57 259 8.0 13.0 0.00 0.61 0.51 83
20260831220903 57 259 8.0 13.0 0.00 0.61 0.51 83
20260831220803 57 259 8.0 13.0 0.00 0.61 0.51 83
20260831220703 57 258 8.0 13.0 0.00 0.62 0.51 84
20260831220603 57 257 7.0 12.0 0.00 0.62 0.51 84
20260831220503 57 258 7.0 12.0 0.00 0.62 0.51 84
20260831220403 57 258 7.0 12.0 0.00 0.62 0.51 84
20260831220303 57 258 7.0 11.0 0.00 0.62 0.51 84
20260831220203 57 258 7.0 11.0 0.00 0.62 0.51 84
20260831220125 57 258 7.0 11.0 0.00 0.62 0.51 84
20260831220003 57 258 7.0 11.0 0.00 0.62 0.51 84
20260831215903 57 259 7.0 11.0 0.00 0.62 0.51 84
20260831215803 57 258 7.0 11.0 0.00 0.62 0.51 83
20260831215703 57 258 7.0 11.0 0.00 0.62 0.51 83
20260831215603 57 258 7.0 11.0 0.00 0.62 0.51 83
20260831215503 57 259 7.0 11.0 0.00 0.62 0.51 83
20260831215424 57 260 7.0 11.0 0.00 0.62 0.51 83
20260831215306 57 261 7.0 11.0 0.00 0.62 0.51 83
20260831215224 57 261 7.0 11.0 0.00 0.62 0.51 83
20260831215124 57 262 7.0 11.0 0.00 0.62 0.51 83
20260831215003 57 263 7.0 11.0 0.00 0.62 0.51 83
20260831214903 57 263 7.0 11.0 0.00 0.62 0.51 83
20260831214803 57 266 7.0 11.0 0.00 0.62 0.51 83
20260831214703 57 268 7.0 11.0 0.00 0.62 0.51 83
20260831214603 57 269 7.0 12.0 0.00 0.62 0.51 83
20260831214503 57 271 7.0 12.0 0.00 0.62 0.51 83
20260831214403 57 272 7.0 12.0 0.00 0.62 0.51 83
20260831214303 57 271 7.0 12.0 0.00 0.62 0.51 83
20260831214204 57 271 7.0 12.0 0.00 0.62 0.51 83
20260831214103 57 270 7.0 12.0 0.00 0.62 0.51 83
20260831214003 57 270 7.0 12.0 0.00 0.62 0.51 83
20260831213903 57 269 7.0 12.0 0.00 0.62 0.51 83
20260831213803 57 267 7.0 12.0 0.00 0.62 0.51 83
20260831213703 57 267 7.0 12.0 0.00 0.62 0.51 83
20260831213603 57 268 7.0 12.0 0.00 0.62 0.51 83
20260831213503 57 267 7.0 12.0 0.00 0.62 0.51 83
20260831213403 57 264 7.0 12.0 0.00 0.62 0.51 83
20260831213303 57 264 7.0 12.0 0.00 0.62 0.51 83
20260831213203 57 265 7.0 11.0 0.00 0.62 0.51 83
20260831213124 57 264 7.0 10.0 0.00 0.62 0.51 83
20260831213024 57 264 7.0 10.0 0.00 0.62 0.51 83
20260831212903 57 264 7.0 13.0 0.00 0.62 0.51 83
20260831212803 57 264 7.0 13.0 0.00 0.62 0.51 83
20260831212703 57 263 7.0 13.0 0.00 0.62 0.51 83
20260831212603 57 261 7.0 13.0 0.00 0.62 0.51 83
20260831212504 57 261 7.0 13.0 0.00 0.62 0.51 83
20260831212403 57 260 7.0 13.0 0.00 0.62 0.51 83
20260831212306 57 260 7.0 13.0 0.00 0.62 0.51 83
20260831212203 58 260 7.0 13.0 0.00 0.62 0.51 83
20260831212103 57 260 7.0 13.0 0.00 0.62 0.51 83
20260831212024 57 261 7.0 13.0 0.00 0.62 0.51 83
20260831211925 58 261 6.0 13.0 0.00 0.62 0.51 83
20260831211824 58 261 6.0 11.0 0.00 0.62 0.51 83
20260831211703 58 261 7.0 11.0 0.00 0.62 0.51 82
20260831211603 58 262 7.0 11.0 0.00 0.62 0.51 82
20260831211504 58 261 7.0 11.0 0.00 0.62 0.51 82
20260831211403 58 261 7.0 11.0 0.00 0.62 0.51 82
20260831211303 58 261 7.0 12.0 0.00 0.62 0.51 82
20260831211203 58 262 7.0 12.0 0.00 0.62 0.51 82
20260831211103 58 264 7.0 12.0 0.00 0.62 0.51 82
20260831211003 58 264 8.0 12.0 0.00 0.62 0.51 82
20260831210924 58 264 8.0 12.0 0.00 0.62 0.51 82
20260831210803 58 266 8.0 12.0 0.00 0.62 0.51 82
20260831210703 58 266 8.0 12.0 0.00 0.62 0.51 82
20260831210603 58 267 8.0 12.0 0.00 0.62 0.51 82
20260831210503 58 267 8.0 13.0 0.00 0.62 0.51 82
20260831210403 58 268 8.0 13.0 0.00 0.62 0.51 82
20260831210303 58 268 8.0 13.0 0.00 0.62 0.51 82
20260831210204 58 267 7.0 13.0 0.00 0.63 0.51 82
20260831210103 58 266 7.0 13.0 0.00 0.63 0.51 82
20260831210003 58 265 7.0 13.0 0.00 0.63 0.51 82
20260831205903 58 265 7.0 13.0 0.00 0.63 0.51 82
20260831205803 58 264 7.0 13.0 0.00 0.63 0.51 82
20260831205703 58 263 7.0 13.0 0.00 0.63 0.51 82
20260831205603 58 262 7.0 13.0 0.00 0.63 0.51 82
20260831205524 58 262 7.0 13.0 0.00 0.63 0.51 82
20260831205403 58 263 7.0 13.0 0.00 0.63 0.51 81
20260831205305 58 262 8.0 13.0 0.00 0.63 0.51 81
20260831205224 58 262 8.0 13.0 0.00 0.64 0.51 81
20260831205124 58 262 8.0 13.0 0.00 0.64 0.51 81
20260831205003 58 262 9.0 13.0 0.00 0.64 0.51 81
20260831204903 58 261 9.0 13.0 0.00 0.64 0.51 81
20260831204803 58 262 9.0 13.0 0.00 0.65 0.51 81
20260831204703 58 262 9.0 13.0 0.00 0.65 0.51 81
20260831204603 58 262 9.0 13.0 0.00 0.65 0.51 81
20260831204503 58 262 9.0 13.0 0.00 0.65 0.51 81
20260831204403 58 261 9.0 13.0 0.00 0.65 0.51 81
20260831204303 58 263 9.0 13.0 0.00 0.65 0.51 80
20260831204203 58 263 9.0 13.0 0.00 0.65 0.51 80
20260831204103 58 262 9.0 13.0 0.00 0.65 0.51 80
20260831204024 58 261 9.0 13.0 0.00 0.65 0.51 80
20260831203903 58 261 8.0 13.0 0.00 0.66 0.51 80
20260831203803 58 259 8.0 13.0 0.00 0.66 0.51 81
20260831203704 58 259 8.0 13.0 0.00 0.66 0.51 81
20260831203603 58 258 8.0 13.0 0.00 0.66 0.51 80
20260831203503 58 258 8.0 13.0 0.00 0.66 0.51 80
20260831203403 58 256 8.0 13.0 0.00 0.66 0.51 80
20260831203303 58 256 8.0 13.0 0.00 0.66 0.51 80
20260831203203 58 255 8.0 13.0 0.00 0.66 0.51 80
20260831203103 58 256 8.0 12.0 0.00 0.66 0.51 80
20260831203024 58 256 8.0 12.0 0.00 0.66 0.51 80
20260831202903 58 258 7.0 12.0 0.00 0.67 0.51 80
20260831202824 58 259 7.0 12.0 0.00 0.67 0.51 80
20260831202703 58 261 8.0 12.0 0.00 0.67 0.51 80
20260831202624 58 261 8.0 12.0 0.00 0.67 0.51 80
20260831202503 58 263 8.0 13.0 0.00 0.67 0.51 79
20260831202424 58 263 8.0 13.0 0.00 0.67 0.51 79
20260831202324 58 265 8.0 13.0 0.00 0.67 0.51 80
20260831202203 58 266 7.0 13.0 0.00 0.67 0.51 79
20260831202104 58 266 7.0 13.0 0.00 0.67 0.51 79
20260831202003 58 266 7.0 13.0 0.00 0.67 0.51 79
20260831201903 58 265 7.0 13.0 0.00 0.67 0.51 80
20260831201823 58 266 7.0 13.0 0.00 0.67 0.51 80
20260831201723 58 265 7.0 13.0 0.00 0.67 0.51 80
20260831201601 58 268 7.0 13.0 0.00 0.67 0.51 80
20260831201502 58 270 7.0 12.0 0.00 0.67 0.51 80
20260831201401 58 272 7.0 12.0 0.00 0.67 0.51 79
20260831201302 58 274 7.0 12.0 0.00 0.67 0.51 79
20260831201201 59 275 7.0 12.0 0.00 0.67 0.51 79
20260831201102 59 277 7.0 12.0 0.00 0.67 0.51 79
20260831201023 59 278 7.0 12.0 0.00 0.67 0.51 79
20260831200902 59 278 7.0 12.0 0.00 0.67 0.51 79
20260831200802 59 279 7.0 10.0 0.00 0.67 0.51 79
20260831200722 59 279 7.0 10.0 0.00 0.67 0.51 79
20260831200602 59 277 7.0 10.0 0.00 0.67 0.51 78
20260831200502 59 277 7.0 10.0 0.00 0.67 0.51 78
20260831200402 59 276 7.0 10.0 0.00 0.67 0.51 78
20260831200302 59 274 7.0 10.0 0.00 0.67 0.51 78
20260831200201 59 272 7.0 11.0 0.00 0.67 0.51 77
20260831200002 59 272 8.0 11.0 0.00 0.67 0.51 77
20260831195924 59 273 8.0 11.0 0.00 0.67 0.51 77
20260831195801 59 272 8.0 11.0 0.00 0.67 0.51 77
20260831195702 59 271 8.0 11.0 0.00 0.67 0.51 77
20260831195601 59 272 8.0 11.0 0.00 0.67 0.51 77
20260831195502 59 272 8.0 11.0 0.00 0.67 0.51 77
20260831195402 59 274 8.0 13.0 0.00 0.67 0.51 76
20260831195301 59 275 8.0 13.0 0.00 0.67 0.51 76
20260831195222 59 277 8.0 13.0 0.00 0.67 0.51 76
20260831195101 59 279 9.0 13.0 0.00 0.67 0.51 76
20260831195001 59 279 9.0 13.0 0.00 0.67 0.51 76
20260831194902 59 279 9.0 13.0 0.00 0.67 0.51 76
20260831194802 59 280 9.0 13.0 0.00 0.67 0.51 76
20260831194723 59 281 9.0 14.0 0.00 0.67 0.51 76
20260831194602 59 283 10.0 14.0 0.00 0.67 0.51 76
20260831194503 59 283 9.0 14.0 0.00 0.67 0.51 76
20260831194402 60 283 10.0 14.0 0.00 0.67 0.51 76
20260831194302 60 282 10.0 14.0 0.00 0.67 0.51 76
20260831194223 59 282 10.0 14.0 0.00 0.67 0.51 76
20260831194101 59 281 9.0 14.0 0.00 0.67 0.51 76
20260831194001 59 281 9.0 14.0 0.00 0.67 0.51 76
20260831193902 59 281 9.0 14.0 0.00 0.67 0.51 77
20260831193801 59 280 9.0 14.0 0.00 0.67 0.51 77
20260831193702 59 279 9.0 13.0 0.00 0.67 0.51 77
20260831193602 59 279 9.0 13.0 0.00 0.67 0.51 77
20260831193523 59 278 9.0 13.0 0.00 0.67 0.51 77
20260831193423 59 276 9.0 13.0 0.00 0.67 0.51 78
20260831193303 59 273 9.0 13.0 0.00 0.67 0.51 78
20260831193201 59 272 8.0 13.0 0.00 0.67 0.51 79
20260831193102 59 271 8.0 13.0 0.00 0.67 0.51 79
20260831193002 59 269 8.0 13.0 0.00 0.67 0.51 79
20260831192923 59 269 8.0 13.0 0.00 0.67 0.51 79
20260831192802 59 268 8.0 13.0 0.00 0.67 0.51 79
20260831192702 59 268 8.0 13.0 0.00 0.67 0.51 79
20260831192602 60 266 8.0 13.0 0.00 0.67 0.51 79
20260831192502 59 268 8.0 13.0 0.00 0.67 0.51 79
20260831192402 60 269 8.0 13.0 0.00 0.67 0.51 79
20260831192305 60 270 8.0 13.0 0.00 0.67 0.51 79
20260831192202 60 272 9.0 14.0 0.00 0.67 0.51 79
20260831192122 60 274 9.0 16.0 0.00 0.67 0.51 79
20260831192023 60 275 9.0 16.0 0.00 0.67 0.51 79
20260831191902 60 275 9.0 16.0 0.00 0.67 0.51 79
20260831191802 60 276 10.0 16.0 0.00 0.67 0.51 78
20260831191702 60 279 10.0 16.0 0.00 0.67 0.51 78
20260831191623 60 279 10.0 16.0 0.00 0.67 0.51 78
20260831191502 60 281 10.0 16.0 0.00 0.67 0.51 78
20260831191402 60 282 11.0 16.0 0.00 0.67 0.51 78
20260831191323 60 283 11.0 16.0 0.00 0.67 0.51 78
20260831191223 60 284 11.0 16.0 0.00 0.67 0.51 77
20260831191102 60 283 11.0 18.0 0.00 0.67 0.51 77
20260831191002 60 284 11.0 18.0 0.00 0.67 0.51 77
20260831190902 60 285 12.0 18.0 0.00 0.67 0.51 77
20260831190801 60 285 11.0 18.0 0.00 0.67 0.51 77
20260831190724 60 284 11.0 18.0 0.00 0.67 0.51 77
20260831190624 60 284 11.0 18.0 0.00 0.67 0.51 76
20260831190502 60 283 11.0 18.0 0.00 0.67 0.51 76
20260831190401 60 282 10.0 18.0 0.00 0.67 0.51 76
20260831190302 60 282 10.0 18.0 0.00 0.67 0.51 76
20260831190202 60 281 10.0 18.0 0.00 0.67 0.51 76
20260831190002 60 282 10.0 15.0 0.00 0.67 0.51 76
20260831185923 60 282 10.0 15.0 0.00 0.67 0.51 76
20260831185802 60 283 10.0 15.0 0.00 0.67 0.51 76
20260831185702 60 284 10.0 16.0 0.00 0.67 0.51 75
20260831185602 60 285 11.0 18.0 0.00 0.67 0.51 75
20260831185502 61 287 12.0 18.0 0.00 0.67 0.51 75
20260831185402 61 287 12.0 18.0 0.00 0.67 0.51 75
20260831185301 61 288 13.0 19.0 0.00 0.67 0.51 74
20260831185202 61 288 13.0 19.0 0.00 0.67 0.51 74
20260831185101 61 289 13.0 20.0 0.00 0.67 0.51 74
20260831185023 61 289 13.0 20.0 0.00 0.67 0.51 74
20260831184902 61 290 14.0 20.0 0.00 0.67 0.51 74
20260831184802 61 290 14.0 20.0 0.00 0.67 0.51 74
20260831184702 61 290 15.0 20.0 0.00 0.67 0.51 74
20260831184601 61 289 15.0 20.0 0.00 0.67 0.51 73
20260831184502 61 289 15.0 20.0 0.00 0.67 0.51 73
20260831184402 61 289 15.0 20.0 0.00 0.67 0.51 73
20260831184302 61 290 15.0 20.0 0.00 0.67 0.51 73
20260831184202 61 291 15.0 20.0 0.00 0.67 0.51 73
20260831184102 61 288 15.0 19.0 0.00 0.67 0.51 73
20260831184001 61 286 16.0 23.0 0.00 0.67 0.51 73 1015.6